Time,TemperatureF,DewpointF,PressureIn,WindDirection,WindDirectionDegrees,WindSpeedMPH,WindSpeedGustMPH,Humidity,HourlyPrecipIn,Conditions,Clouds,dailyrainin,SoftwareType,DateUTC
2013-05-18 00:02:00,72.0,7.5,29.55,SW,222,0.0,0.0,8,0.00,,---,0.00,VWS V14.00,2013-05-18 05:02:00,
2013-05-18 00:03:00,72.0,7.5,29.55,SW,222,0.0,0.0,8,0.00,,---,0.00,VWS V14.00,2013-05-18 05:03:00,
2013-05-18 00:07:00,71.3,9.6,29.55,SW,222,0.0,0.0,9,0.00,,---,0.00,VWS V14.00,2013-05-18 05:07:00,
2013-05-18 00:08:00,71.1,9.4,29.55,SW,222,0.0,0.0,9,0.00,,---,0.00,VWS V14.00,2013-05-18 05:08:00,
2013-05-18 00:12:00,70.8,9.2,29.55,SW,223,0.0,0.0,9,0.00,,---,0.00,VWS V14.00,2013-05-18 05:12:00,
2013-05-18 00:13:00,70.6,9.1,29.55,SW,223,0.0,0.0,9,0.00,,---,0.00,VWS V14.00,2013-05-18 05:13:00,
2013-05-18 00:17:00,70.6,9.1,29.57,SW,224,0.0,0.0,9,0.00,,---,0.00,VWS V14.00,2013-05-18 05:17:00,
2013-05-18 00:18:00,70.6,6.5,29.57,SW,229,0.0,0.0,8,0.00,,---,0.00,VWS V14.00,2013-05-18 05:18:00,
2013-05-18 00:22:00,70.4,8.9,29.57,SW,229,0.0,0.0,9,0.00,,---,0.00,VWS V14.00,2013-05-18 05:22:00,
2013-05-18 00:23:00,70.4,8.9,29.57,SW,229,0.0,0.0,9,0.00,,---,0.00,VWS V14.00,2013-05-18 05:23:00,
2013-05-18 00:28:00,70.6,6.5,29.57,SW,233,0.0,0.0,8,0.00,,---,0.00,VWS V14.00,2013-05-18 05:28:00,
2013-05-18 00:29:00,70.8,6.6,29.57,SW,233,0.0,0.0,8,0.00,,---,0.00,VWS V14.00,2013-05-18 05:29:00,
2013-05-18 00:33:00,70.4,8.9,29.57,SW,234,0.0,0.0,9,0.00,,---,0.00,VWS V14.00,2013-05-18 05:33:00,
2013-05-18 00:34:00,70.4,8.9,29.57,SW,234,0.0,0.0,9,0.00,,---,0.00,VWS V14.00,2013-05-18 05:34:00,
2013-05-18 00:38:00,70.1,8.7,29.57,SW,234,0.0,0.0,9,0.00,,---,0.00,VWS V14.00,2013-05-18 05:38:00,
2013-05-18 00:39:00,69.9,10.9,29.57,SW,234,0.0,0.0,10,0.00,,---,0.00,VWS V14.00,2013-05-18 05:39:00,
2013-05-18 00:43:00,69.9,8.5,29.57,SW,234,0.0,0.0,9,0.00,,---,0.00,VWS V14.00,2013-05-18 05:43:00,
2013-05-18 00:44:00,69.8,8.5,29.57,SW,234,0.0,0.0,9,0.00,,---,0.00,VWS V14.00,2013-05-18 05:44:00,
2013-05-18 00:45:00,69.8,8.5,29.57,SW,234,0.0,0.0,9,0.00,,---,0.00,VWS V14.00,2013-05-18 05:45:00,
2013-05-18 00:48:00,69.9,8.5,29.57,SW,233,0.0,0.0,9,0.00,,---,0.00,VWS V14.00,2013-05-18 05:48:00,
2013-05-18 00:49:00,69.9,8.5,29.57,SW,233,0.0,0.0,9,0.00,,---,0.00,VWS V14.00,2013-05-18 05:49:00,
2013-05-18 00:50:00,69.9,8.5,29.57,SW,233,0.0,0.0,9,0.00,,---,0.00,VWS V14.00,2013-05-18 05:50:00,
2013-05-18 00:53:00,69.8,8.5,29.57,SW,233,0.0,0.0,9,0.00,,---,0.00,VWS V14.00,2013-05-18 05:53:00,
2013-05-18 00:54:00,69.8,10.8,29.57,SW,234,0.0,0.0,10,0.00,,---,0.00,VWS V14.00,2013-05-18 05:54:00,
2013-05-18 00:55:00,69.9,8.5,29.57,WSW,257,0.0,6.0,9,0.00,,---,0.00,VWS V14.00,2013-05-18 05:55:00,
2013-05-18 00:58:00,69.9,8.5,29.57,WSW,257,0.0,6.0,9,0.00,,---,0.00,VWS V14.00,2013-05-18 05:58:00,
2013-05-18 00:59:00,69.9,8.5,29.57,WSW,257,0.0,6.0,9,0.00,,---,0.00,VWS V14.00,2013-05-18 05:59:00,
2013-05-18 01:00:00,70.1,8.7,29.57,WSW,257,0.0,0.0,9,0.00,,---,0.00,VWS V14.00,2013-05-18 06:00:00,
2013-05-18 01:03:00,69.9,8.5,29.57,WSW,257,0.0,0.0,9,0.00,,---,0.00,VWS V14.00,2013-05-18 06:03:00,
2013-05-18 01:04:00,69.9,8.5,29.57,WSW,257,0.0,0.0,9,0.00,,---,0.00,VWS V14.00,2013-05-18 06:04:00,
2013-05-18 01:05:00,69.9,8.5,29.57,WSW,257,0.0,0.0,9,0.00,,---,0.00,VWS V14.00,2013-05-18 06:05:00,
2013-05-18 01:08:00,69.8,8.5,29.57,WSW,257,0.0,0.0,9,0.00,,---,0.00,VWS V14.00,2013-05-18 06:08:00,
2013-05-18 01:09:00,69.8,8.5,29.57,WSW,257,0.0,0.0,9,0.00,,---,0.00,VWS V14.00,2013-05-18 06:09:00,
2013-05-18 01:10:00,69.8,8.5,29.57,WSW,257,0.0,0.0,9,0.00,,---,0.00,VWS V14.00,2013-05-18 06:10:00,
2013-05-18 01:11:00,69.6,10.6,29.57,WSW,257,0.0,0.0,10,0.00,,---,0.00,VWS V14.00,2013-05-18 06:11:00,
2013-05-18 01:14:00,69.4,8.2,29.58,WSW,257,0.0,0.0,9,0.00,,---,0.00,VWS V14.00,2013-05-18 06:14:00,
2013-05-18 01:15:00,69.4,8.2,29.58,WSW,257,0.0,0.0,9,0.00,,---,0.00,VWS V14.00,2013-05-18 06:15:00,
2013-05-18 01:16:00,69.4,8.2,29.58,WSW,257,0.0,0.0,9,0.00,,---,0.00,VWS V14.00,2013-05-18 06:16:00,
2013-05-18 01:19:00,69.3,10.4,29.58,WSW,257,0.0,0.0,10,0.00,,---,0.00,VWS V14.00,2013-05-18 06:19:00,
2013-05-18 01:20:00,69.1,10.3,29.58,WSW,257,0.0,0.0,10,0.00,,---,0.00,VWS V14.00,2013-05-18 06:20:00,
2013-05-18 01:21:00,69.1,10.3,29.58,WSW,257,0.0,0.0,10,0.00,,---,0.00,VWS V14.00,2013-05-18 06:21:00,
2013-05-18 01:24:00,69.1,10.3,29.58,WSW,257,0.0,0.0,10,0.00,,---,0.00,VWS V14.00,2013-05-18 06:24:00,
2013-05-18 01:25:00,68.9,10.1,29.58,WSW,257,0.0,0.0,10,0.00,,---,0.00,VWS V14.00,2013-05-18 06:25:00,
2013-05-18 01:26:00,68.9,12.3,29.58,WSW,257,0.0,0.0,11,0.00,,---,0.00,VWS V14.00,2013-05-18 06:26:00,
2013-05-18 01:29:00,68.8,10.0,29.58,WSW,257,0.0,0.0,10,0.00,,---,0.00,VWS V14.00,2013-05-18 06:29:00,
2013-05-18 01:30:00,68.8,10.0,29.58,WSW,257,0.0,0.0,10,0.00,,---,0.00,VWS V14.00,2013-05-18 06:30:00,
2013-05-18 01:31:00,68.8,10.0,29.58,WSW,257,0.0,0.0,10,0.00,,---,0.00,VWS V14.00,2013-05-18 06:31:00,
2013-05-18 01:34:00,68.8,10.0,29.58,WSW,257,0.0,0.0,10,0.00,,---,0.00,VWS V14.00,2013-05-18 06:34:00,
2013-05-18 01:36:00,68.8,10.0,29.58,WSW,257,0.0,0.0,10,0.00,,---,0.00,VWS V14.00,2013-05-18 06:36:00,
2013-05-18 01:39:00,68.6,9.9,29.58,WSW,257,0.0,0.0,10,0.00,,---,0.00,VWS V14.00,2013-05-18 06:39:00,
2013-05-18 01:41:00,68.6,12.0,29.58,WSW,256,0.0,0.0,11,0.00,,---,0.00,VWS V14.00,2013-05-18 06:41:00,
2013-05-18 01:44:00,68.8,10.0,29.57,WSW,257,0.0,0.0,10,0.00,,---,0.00,VWS V14.00,2013-05-18 06:44:00,
2013-05-18 01:45:00,68.9,10.1,29.57,WSW,257,0.0,0.0,10,0.00,,---,0.00,VWS V14.00,2013-05-18 06:45:00,
2013-05-18 01:46:00,68.9,7.8,29.57,WSW,257,0.0,0.0,9,0.00,,---,0.00,VWS V14.00,2013-05-18 06:46:00,
2013-05-18 01:49:00,69.1,10.3,29.57,WSW,258,0.0,0.0,10,0.00,,---,0.00,VWS V14.00,2013-05-18 06:49:00,
2013-05-18 01:50:00,69.1,10.3,29.57,WSW,258,0.0,0.0,10,0.00,,---,0.00,VWS V14.00,2013-05-18 06:50:00,
2013-05-18 01:51:00,69.1,10.3,29.57,WSW,258,0.0,0.0,10,0.00,,---,0.00,VWS V14.00,2013-05-18 06:51:00,
2013-05-18 01:52:00,68.9,10.1,29.57,WSW,258,0.0,0.0,10,0.00,,---,0.00,VWS V14.00,2013-05-18 06:52:00,
2013-05-18 01:55:00,68.9,7.8,29.57,WSW,258,0.0,0.0,9,0.00,,---,0.00,VWS V14.00,2013-05-18 06:55:00,
2013-05-18 01:56:00,68.9,10.1,29.57,WSW,258,0.0,0.0,10,0.00,,---,0.00,VWS V14.00,2013-05-18 06:56:00,
2013-05-18 01:57:00,68.9,10.1,29.57,WSW,258,0.0,0.0,10,0.00,,---,0.00,VWS V14.00,2013-05-18 06:57:00,
2013-05-18 02:00:00,69.1,7.9,29.57,West,263,0.0,0.0,9,0.00,,---,0.00,VWS V14.00,2013-05-18 07:00:00,
2013-05-18 02:01:00,69.1,7.9,29.57,West,263,0.0,0.0,9,0.00,,---,0.00,VWS V14.00,2013-05-18 07:01:00,
2013-05-18 02:02:00,69.1,7.9,29.57,West,263,0.0,0.0,9,0.00,,---,0.00,VWS V14.00,2013-05-18 07:02:00,
2013-05-18 02:03:00,69.1,7.9,29.57,West,263,0.0,0.0,9,0.00,,---,0.00,VWS V14.00,2013-05-18 07:03:00,
2013-05-18 02:05:00,69.1,7.9,29.57,West,265,0.0,3.0,9,0.00,,---,0.00,VWS V14.00,2013-05-18 07:05:00,
2013-05-18 02:07:00,68.9,7.8,29.57,West,265,0.0,3.0,9,0.00,,---,0.00,VWS V14.00,2013-05-18 07:07:00,
2013-05-18 02:09:00,68.8,10.0,29.57,West,265,0.0,3.0,10,0.00,,---,0.00,VWS V14.00,2013-05-18 07:09:00,
2013-05-18 02:10:00,68.8,10.0,29.57,West,265,0.0,3.0,10,0.00,,---,0.00,VWS V14.00,2013-05-18 07:10:00,
2013-05-18 02:12:00,68.8,10.0,29.57,West,265,0.0,3.0,10,0.00,,---,0.00,VWS V14.00,2013-05-18 07:12:00,
2013-05-18 02:14:00,68.6,9.9,29.55,West,260,0.0,3.0,10,0.00,,---,0.00,VWS V14.00,2013-05-18 07:14:00,
2013-05-18 02:15:00,68.8,10.0,29.55,West,260,0.0,3.0,10,0.00,,---,0.00,VWS V14.00,2013-05-18 07:15:00,
2013-05-18 02:17:00,68.8,10.0,29.55,West,260,0.0,3.0,10,0.00,,---,0.00,VWS V14.00,2013-05-18 07:17:00,
2013-05-18 02:18:00,68.8,10.0,29.55,West,260,0.0,3.0,10,0.00,,---,0.00,VWS V14.00,2013-05-18 07:18:00,
2013-05-18 02:19:00,68.8,10.0,29.55,West,260,0.0,3.0,10,0.00,,---,0.00,VWS V14.00,2013-05-18 07:19:00,
2013-05-18 02:20:00,68.6,9.9,29.55,West,260,0.0,3.0,10,0.00,,---,0.00,VWS V14.00,2013-05-18 07:20:00,
2013-05-18 02:21:00,68.6,9.9,29.55,West,260,0.0,3.0,10,0.00,,---,0.00,VWS V14.00,2013-05-18 07:21:00,
2013-05-18 02:22:00,68.6,9.9,29.55,West,260,0.0,3.0,10,0.00,,---,0.00,VWS V14.00,2013-05-18 07:22:00,
2013-05-18 02:23:00,68.6,9.9,29.55,West,260,0.0,3.0,10,0.00,,---,0.00,VWS V14.00,2013-05-18 07:23:00,
2013-05-18 02:24:00,68.4,9.7,29.55,West,260,0.0,3.0,10,0.00,,---,0.00,VWS V14.00,2013-05-18 07:24:00,
2013-05-18 02:25:00,68.4,9.7,29.55,West,260,0.0,3.0,10,0.00,,---,0.00,VWS V14.00,2013-05-18 07:25:00,
2013-05-18 02:26:00,68.4,9.7,29.55,West,260,0.0,3.0,10,0.00,,---,0.00,VWS V14.00,2013-05-18 07:26:00,
2013-05-18 02:27:00,68.4,9.7,29.55,West,260,0.0,3.0,10,0.00,,---,0.00,VWS V14.00,2013-05-18 07:27:00,
2013-05-18 02:28:00,68.4,7.4,29.55,West,261,0.0,3.0,9,0.00,,---,0.00,VWS V14.00,2013-05-18 07:28:00,
2013-05-18 02:30:00,68.4,9.7,29.56,West,261,0.0,0.0,10,0.00,,---,0.00,VWS V14.00,2013-05-18 07:30:00,
2013-05-18 02:31:00,68.4,9.7,29.56,West,261,0.0,0.0,10,0.00,,---,0.00,VWS V14.00,2013-05-18 07:31:00,
2013-05-18 02:32:00,68.4,9.7,29.56,West,261,0.0,0.0,10,0.00,,---,0.00,VWS V14.00,2013-05-18 07:32:00,
2013-05-18 02:33:00,68.4,9.7,29.56,West,261,0.0,0.0,10,0.00,,---,0.00,VWS V14.00,2013-05-18 07:33:00,
2013-05-18 02:35:00,68.6,9.9,29.56,West,261,0.0,0.0,10,0.00,,---,0.00,VWS V14.00,2013-05-18 07:35:00,
2013-05-18 02:36:00,68.6,9.9,29.56,West,261,0.0,0.0,10,0.00,,---,0.00,VWS V14.00,2013-05-18 07:36:00,
2013-05-18 02:37:00,68.6,9.9,29.56,West,261,0.0,0.0,10,0.00,,---,0.00,VWS V14.00,2013-05-18 07:37:00,
2013-05-18 02:38:00,68.6,9.9,29.56,West,261,0.0,0.0,10,0.00,,---,0.00,VWS V14.00,2013-05-18 07:38:00,
2013-05-18 02:40:00,68.4,9.7,29.56,West,261,0.0,0.0,10,0.00,,---,0.00,VWS V14.00,2013-05-18 07:40:00,
2013-05-18 02:41:00,68.4,11.9,29.56,West,261,0.0,0.0,11,0.00,,---,0.00,VWS V14.00,2013-05-18 07:41:00,
2013-05-18 02:42:00,68.3,9.7,29.56,West,261,0.0,0.0,10,0.00,,---,0.00,VWS V14.00,2013-05-18 07:42:00,
2013-05-18 02:43:00,68.1,9.5,29.56,West,261,0.0,0.0,10,0.00,,---,0.00,VWS V14.00,2013-05-18 07:43:00,
2013-05-18 02:45:00,67.9,9.4,29.56,West,261,0.0,0.0,10,0.00,,---,0.00,VWS V14.00,2013-05-18 07:45:00,
2013-05-18 02:46:00,67.8,9.3,29.56,West,261,0.0,0.0,10,0.00,,---,0.00,VWS V14.00,2013-05-18 07:46:00,
2013-05-18 02:47:00,67.8,11.4,29.56,West,261,0.0,0.0,11,0.00,,---,0.00,VWS V14.00,2013-05-18 07:47:00,
2013-05-18 02:48:00,67.6,11.2,29.56,West,261,0.0,0.0,11,0.00,,---,0.00,VWS V14.00,2013-05-18 07:48:00,
2013-05-18 02:50:00,67.4,9.0,29.56,West,261,0.0,0.0,10,0.00,,---,0.00,VWS V14.00,2013-05-18 07:50:00,
2013-05-18 02:51:00,67.4,11.1,29.56,West,261,0.0,0.0,11,0.00,,---,0.00,VWS V14.00,2013-05-18 07:51:00,
2013-05-18 02:52:00,67.4,11.1,29.56,West,261,0.0,0.0,11,0.00,,---,0.00,VWS V14.00,2013-05-18 07:52:00,
2013-05-18 02:53:00,67.4,11.1,29.56,West,261,0.0,0.0,11,0.00,,---,0.00,VWS V14.00,2013-05-18 07:53:00,
2013-05-18 02:55:00,67.3,8.9,29.56,West,261,0.0,0.0,10,0.00,,---,0.00,VWS V14.00,2013-05-18 07:55:00,
2013-05-18 02:56:00,67.3,8.9,29.56,West,261,0.0,0.0,10,0.00,,---,0.00,VWS V14.00,2013-05-18 07:56:00,
2013-05-18 02:57:00,67.3,11.0,29.56,West,261,0.0,0.0,11,0.00,,---,0.00,VWS V14.00,2013-05-18 07:57:00,
2013-05-18 02:58:00,67.3,11.0,29.56,West,261,0.0,0.0,11,0.00,,---,0.00,VWS V14.00,2013-05-18 07:58:00,
2013-05-18 03:00:00,67.1,10.9,29.56,West,261,0.0,0.0,11,0.00,,---,0.00,VWS V14.00,2013-05-18 08:00:00,
2013-05-18 03:01:00,67.1,10.9,29.56,West,261,0.0,0.0,11,0.00,,---,0.00,VWS V14.00,2013-05-18 08:01:00,
2013-05-18 03:02:00,66.9,10.7,29.56,West,261,0.0,0.0,11,0.00,,---,0.00,VWS V14.00,2013-05-18 08:02:00,
2013-05-18 03:03:00,66.8,10.6,29.56,West,261,0.0,0.0,11,0.00,,---,0.00,VWS V14.00,2013-05-18 08:03:00,
2013-05-18 03:05:00,66.1,12.0,29.56,West,261,0.0,0.0,12,0.00,,---,0.00,VWS V14.00,2013-05-18 08:05:00,
2013-05-18 03:06:00,66.0,12.0,29.56,West,261,0.0,0.0,12,0.00,,---,0.00,VWS V14.00,2013-05-18 08:06:00,
2013-05-18 03:07:00,65.8,11.8,29.56,West,261,0.0,0.0,12,0.00,,---,0.00,VWS V14.00,2013-05-18 08:07:00,
2013-05-18 03:08:00,65.6,11.6,29.56,West,261,0.0,0.0,12,0.00,,---,0.00,VWS V14.00,2013-05-18 08:08:00,
2013-05-18 03:10:00,65.3,11.4,29.56,West,261,0.0,0.0,12,0.00,,---,0.00,VWS V14.00,2013-05-18 08:10:00,
2013-05-18 03:11:00,65.3,11.4,29.56,West,261,0.0,0.0,12,0.00,,---,0.00,VWS V14.00,2013-05-18 08:11:00,
2013-05-18 03:12:00,65.3,11.4,29.56,West,261,0.0,0.0,12,0.00,,---,0.00,VWS V14.00,2013-05-18 08:12:00,
2013-05-18 03:13:00,65.2,11.3,29.56,West,261,0.0,0.0,12,0.00,,---,0.00,VWS V14.00,2013-05-18 08:13:00,
2013-05-18 03:14:00,65.2,11.3,29.56,West,261,0.0,0.0,12,0.00,,---,0.00,VWS V14.00,2013-05-18 08:14:00,
2013-05-18 03:15:00,65.0,13.0,29.56,West,261,0.0,0.0,13,0.00,,---,0.00,VWS V14.00,2013-05-18 08:15:00,
2013-05-18 03:17:00,65.0,11.2,29.56,West,261,0.0,0.0,12,0.00,,---,0.00,VWS V14.00,2013-05-18 08:17:00,
2013-05-18 03:18:00,64.5,12.6,29.56,West,261,0.0,0.0,13,0.00,,---,0.00,VWS V14.00,2013-05-18 08:18:00,
2013-05-18 03:19:00,64.3,12.4,29.56,West,261,0.0,0.0,13,0.00,,---,0.00,VWS V14.00,2013-05-18 08:19:00,
2013-05-18 03:21:00,64.0,12.2,29.56,West,261,0.0,0.0,13,0.00,,---,0.00,VWS V14.00,2013-05-18 08:21:00,
2013-05-18 03:22:00,63.9,13.8,29.56,West,261,0.0,0.0,14,0.00,,---,0.00,VWS V14.00,2013-05-18 08:22:00,
2013-05-18 03:24:00,63.9,12.1,29.56,West,261,0.0,0.0,13,0.00,,---,0.00,VWS V14.00,2013-05-18 08:24:00,
2013-05-18 03:26:00,63.9,12.1,29.56,West,261,0.0,0.0,13,0.00,,---,0.00,VWS V14.00,2013-05-18 08:26:00,
2013-05-18 03:27:00,63.9,12.1,29.56,West,261,0.0,0.0,13,0.00,,---,0.00,VWS V14.00,2013-05-18 08:27:00,
2013-05-18 03:29:00,63.5,13.5,29.57,West,261,0.0,0.0,14,0.00,,---,0.00,VWS V14.00,2013-05-18 08:29:00,
2013-05-18 03:32:00,63.2,14.8,29.57,West,261,0.0,0.0,15,0.00,,---,0.00,VWS V14.00,2013-05-18 08:32:00,
2013-05-18 03:34:00,63.1,13.2,29.57,West,261,0.0,0.0,14,0.00,,---,0.00,VWS V14.00,2013-05-18 08:34:00,
2013-05-18 03:37:00,62.7,11.2,29.57,West,261,0.0,0.0,13,0.00,,---,0.00,VWS V14.00,2013-05-18 08:37:00,
2013-05-18 03:39:00,62.6,14.3,29.57,West,261,0.0,0.0,15,0.00,,---,0.00,VWS V14.00,2013-05-18 08:39:00,
2013-05-18 03:40:00,62.6,14.3,29.57,West,261,0.0,0.0,15,0.00,,---,0.00,VWS V14.00,2013-05-18 08:40:00,
2013-05-18 03:42:00,62.4,14.2,29.57,West,261,0.0,0.0,15,0.00,,---,0.00,VWS V14.00,2013-05-18 08:42:00,
2013-05-18 03:45:00,62.1,12.4,29.58,West,261,0.0,0.0,14,0.00,,---,0.00,VWS V14.00,2013-05-18 08:45:00,
2013-05-18 03:47:00,62.0,12.3,29.58,West,261,0.0,0.0,14,0.00,,---,0.00,VWS V14.00,2013-05-18 08:47:00,
2013-05-18 03:48:00,61.8,12.1,29.58,West,261,0.0,0.0,14,0.00,,---,0.00,VWS V14.00,2013-05-18 08:48:00,
2013-05-18 03:50:00,61.6,13.5,29.58,West,261,0.0,0.0,15,0.00,,---,0.00,VWS V14.00,2013-05-18 08:50:00,
2013-05-18 03:52:00,61.3,16.1,29.58,West,261,0.0,0.0,17,0.00,,---,0.00,VWS V14.00,2013-05-18 08:52:00,
2013-05-18 03:53:00,61.2,17.4,29.58,West,261,0.0,0.0,18,0.00,,---,0.00,VWS V14.00,2013-05-18 08:53:00,
2013-05-18 03:55:00,60.7,18.2,29.58,West,261,0.0,0.0,19,0.00,,---,0.00,VWS V14.00,2013-05-18 08:55:00,
2013-05-18 03:57:00,60.5,12.6,29.58,West,261,0.0,0.0,15,0.00,,---,0.00,VWS V14.00,2013-05-18 08:57:00,
2013-05-18 03:58:00,60.4,14.0,29.58,West,261,0.0,0.0,16,0.00,,---,0.00,VWS V14.00,2013-05-18 08:58:00,
2013-05-18 04:00:00,60.2,16.6,29.58,West,261,0.0,0.0,18,0.00,,---,0.00,VWS V14.00,2013-05-18 09:00:00,
2013-05-18 04:02:00,59.9,13.6,29.58,West,261,0.0,0.0,16,0.00,,---,0.00,VWS V14.00,2013-05-18 09:02:00,
2013-05-18 04:03:00,59.9,13.6,29.58,West,261,0.0,0.0,16,0.00,,---,0.00,VWS V14.00,2013-05-18 09:03:00,
2013-05-18 04:05:00,59.6,14.8,29.58,West,261,0.0,0.0,17,0.00,,---,0.00,VWS V14.00,2013-05-18 09:05:00,
2013-05-18 04:06:00,59.5,16.0,29.58,West,261,0.0,0.0,18,0.00,,---,0.00,VWS V14.00,2013-05-18 09:06:00,
2013-05-18 04:07:00,59.3,14.5,29.58,West,261,0.0,0.0,17,0.00,,---,0.00,VWS V14.00,2013-05-18 09:07:00,
2013-05-18 04:08:00,59.2,18.2,29.58,West,261,0.0,0.0,20,0.00,,---,0.00,VWS V14.00,2013-05-18 09:08:00,
2013-05-18 04:10:00,58.6,18.8,29.58,West,261,0.0,0.0,21,0.00,,---,0.00,VWS V14.00,2013-05-18 09:10:00,
2013-05-18 04:11:00,58.6,18.8,29.58,West,261,0.0,0.0,21,0.00,,---,0.00,VWS V14.00,2013-05-18 09:11:00,
2013-05-18 04:12:00,58.3,19.6,29.58,West,261,0.0,0.0,22,0.00,,---,0.00,VWS V14.00,2013-05-18 09:12:00,
2013-05-18 04:13:00,58.0,19.4,29.58,West,261,0.0,0.0,22,0.00,,---,0.00,VWS V14.00,2013-05-18 09:13:00,
2013-05-18 04:15:00,57.5,14.4,29.61,West,261,0.0,0.0,18,0.00,,---,0.00,VWS V14.00,2013-05-18 09:15:00,
2013-05-18 04:16:00,57.5,14.4,29.61,West,261,0.0,0.0,18,0.00,,---,0.00,VWS V14.00,2013-05-18 09:16:00,
2013-05-18 04:17:00,57.3,16.6,29.61,West,261,0.0,0.0,20,0.00,,---,0.00,VWS V14.00,2013-05-18 09:17:00,
2013-05-18 04:18:00,57.2,15.3,29.61,West,261,0.0,0.0,19,0.00,,---,0.00,VWS V14.00,2013-05-18 09:18:00,
2013-05-18 04:21:00,57.0,15.2,29.61,West,261,0.0,0.0,19,0.00,,---,0.00,VWS V14.00,2013-05-18 09:21:00,
2013-05-18 04:22:00,56.9,15.1,29.61,West,261,0.0,0.0,19,0.00,,---,0.00,VWS V14.00,2013-05-18 09:22:00,
2013-05-18 04:23:00,56.7,13.7,29.61,West,261,0.0,0.0,18,0.00,,---,0.00,VWS V14.00,2013-05-18 09:23:00,
2013-05-18 04:26:00,56.3,19.0,29.61,West,261,0.0,0.0,23,0.00,,---,0.00,VWS V14.00,2013-05-18 09:26:00,
2013-05-18 04:28:00,56.0,16.6,29.61,West,261,0.0,0.0,21,0.00,,---,0.00,VWS V14.00,2013-05-18 09:28:00,
2013-05-18 04:31:00,55.6,16.3,29.62,West,261,0.0,0.0,21,0.00,,---,0.00,VWS V14.00,2013-05-18 09:31:00,
2013-05-18 04:33:00,55.4,13.9,29.62,West,261,0.0,0.0,19,0.00,,---,0.00,VWS V14.00,2013-05-18 09:33:00,
2013-05-18 04:34:00,55.4,17.2,29.62,West,261,0.0,0.0,22,0.00,,---,0.00,VWS V14.00,2013-05-18 09:34:00,
2013-05-18 04:36:00,55.1,18.0,29.62,West,261,0.0,0.0,23,0.00,,---,0.00,VWS V14.00,2013-05-18 09:36:00,
2013-05-18 04:38:00,54.8,17.7,29.62,West,261,0.0,0.0,23,0.00,,---,0.00,VWS V14.00,2013-05-18 09:38:00,
2013-05-18 04:39:00,54.7,17.6,29.62,West,261,0.0,0.0,23,0.00,,---,0.00,VWS V14.00,2013-05-18 09:39:00,
2013-05-18 04:41:00,54.4,18.4,29.62,West,261,0.0,0.0,24,0.00,,---,0.00,VWS V14.00,2013-05-18 09:41:00,
2013-05-18 04:43:00,54.1,18.1,29.62,West,261,0.0,0.0,24,0.00,,---,0.00,VWS V14.00,2013-05-18 09:43:00,
2013-05-18 04:44:00,53.9,18.0,29.63,West,261,0.0,0.0,24,0.00,,---,0.00,VWS V14.00,2013-05-18 09:44:00,
2013-05-18 04:45:00,53.8,17.9,29.63,West,261,0.0,0.0,24,0.00,,---,0.00,VWS V14.00,2013-05-18 09:45:00,
2013-05-18 04:46:00,53.8,17.9,29.63,West,261,0.0,0.0,24,0.00,,---,0.00,VWS V14.00,2013-05-18 09:46:00,
2013-05-18 04:48:00,53.5,17.6,29.63,West,261,0.0,0.0,24,0.00,,---,0.00,VWS V14.00,2013-05-18 09:48:00,
2013-05-18 04:50:00,53.3,17.5,29.63,West,261,0.0,0.0,24,0.00,,---,0.00,VWS V14.00,2013-05-18 09:50:00,
2013-05-18 04:51:00,53.2,17.4,29.63,West,261,0.0,0.0,24,0.00,,---,0.00,VWS V14.00,2013-05-18 09:51:00,
2013-05-18 04:52:00,53.1,17.3,29.63,West,261,0.0,0.0,24,0.00,,---,0.00,VWS V14.00,2013-05-18 09:52:00,
2013-05-18 04:53:00,52.9,17.1,29.63,West,261,0.0,0.0,24,0.00,,---,0.00,VWS V14.00,2013-05-18 09:53:00,
2013-05-18 04:55:00,52.8,18.0,29.63,West,261,0.0,0.0,25,0.00,,---,0.00,VWS V14.00,2013-05-18 09:55:00,
2013-05-18 04:56:00,52.6,18.7,29.63,West,261,0.0,0.0,26,0.00,,---,0.00,VWS V14.00,2013-05-18 09:56:00,
2013-05-18 04:57:00,52.5,18.6,29.63,West,261,0.0,0.0,26,0.00,,---,0.00,VWS V14.00,2013-05-18 09:57:00,
2013-05-18 04:58:00,52.3,16.6,29.63,West,261,0.0,0.0,24,0.00,,---,0.00,VWS V14.00,2013-05-18 09:58:00,
2013-05-18 05:00:00,52.0,18.2,29.64,West,261,0.0,0.0,26,0.00,,---,0.00,VWS V14.00,2013-05-18 10:00:00,
2013-05-18 05:01:00,51.7,17.9,29.64,West,261,0.0,0.0,26,0.00,,---,0.00,VWS V14.00,2013-05-18 10:01:00,
2013-05-18 05:02:00,51.7,17.9,29.64,West,261,0.0,0.0,26,0.00,,---,0.00,VWS V14.00,2013-05-18 10:02:00,
2013-05-18 05:04:00,51.4,16.8,29.64,West,261,0.0,0.0,25,0.00,,---,0.00,VWS V14.00,2013-05-18 10:04:00,
2013-05-18 05:05:00,51.6,17.0,29.64,West,261,0.0,0.0,25,0.00,,---,0.00,VWS V14.00,2013-05-18 10:05:00,
2013-05-18 05:06:00,51.6,16.0,29.64,West,261,0.0,0.0,24,0.00,,---,0.00,VWS V14.00,2013-05-18 10:06:00,
2013-05-18 05:07:00,51.6,16.0,29.64,West,261,0.0,0.0,24,0.00,,---,0.00,VWS V14.00,2013-05-18 10:07:00,
2013-05-18 05:09:00,51.6,15.0,29.64,West,261,0.0,0.0,23,0.00,,---,0.00,VWS V14.00,2013-05-18 10:09:00,
2013-05-18 05:10:00,51.6,15.0,29.64,West,261,0.0,0.0,23,0.00,,---,0.00,VWS V14.00,2013-05-18 10:10:00,
2013-05-18 05:11:00,51.4,14.9,29.64,West,261,0.0,0.0,23,0.00,,---,0.00,VWS V14.00,2013-05-18 10:11:00,
2013-05-18 05:12:00,51.4,16.8,29.64,West,261,0.0,0.0,25,0.00,,---,0.00,VWS V14.00,2013-05-18 10:12:00,
2013-05-18 05:14:00,51.3,14.8,29.64,West,261,0.0,0.0,23,0.00,,---,0.00,VWS V14.00,2013-05-18 10:14:00,
2013-05-18 05:15:00,51.3,14.8,29.64,West,261,0.0,0.0,23,0.00,,---,0.00,VWS V14.00,2013-05-18 10:15:00,
2013-05-18 05:17:00,51.0,18.2,29.64,West,261,0.0,0.0,27,0.00,,---,0.00,VWS V14.00,2013-05-18 10:17:00,
2013-05-18 05:19:00,50.5,19.5,29.64,West,261,0.0,0.0,29,0.00,,---,0.00,VWS V14.00,2013-05-18 10:19:00,
2013-05-18 05:20:00,50.4,19.4,29.64,West,261,0.0,0.0,29,0.00,,---,0.00,VWS V14.00,2013-05-18 10:20:00,
2013-05-18 05:21:00,50.2,19.2,29.64,West,261,0.0,0.0,29,0.00,,---,0.00,VWS V14.00,2013-05-18 10:21:00,
2013-05-18 05:22:00,50.1,17.4,29.64,West,261,0.0,0.0,27,0.00,,---,0.00,VWS V14.00,2013-05-18 10:22:00,
2013-05-18 05:23:00,50.1,17.4,29.64,West,261,0.0,0.0,27,0.00,,---,0.00,VWS V14.00,2013-05-18 10:23:00,
2013-05-18 05:24:00,49.6,17.9,29.64,West,261,0.0,0.0,28,0.00,,---,0.00,VWS V14.00,2013-05-18 10:24:00,
2013-05-18 05:26:00,49.6,17.9,29.64,West,261,0.0,0.0,28,0.00,,---,0.00,VWS V14.00,2013-05-18 10:26:00,
2013-05-18 05:27:00,49.4,16.8,29.64,West,261,0.0,0.0,27,0.00,,---,0.00,VWS V14.00,2013-05-18 10:27:00,
2013-05-18 05:28:00,49.4,16.0,29.64,West,261,0.0,0.0,26,0.00,,---,0.00,VWS V14.00,2013-05-18 10:28:00,
2013-05-18 05:29:00,49.4,16.0,29.65,West,261,0.0,0.0,26,0.00,,---,0.00,VWS V14.00,2013-05-18 10:29:00,
2013-05-18 05:31:00,49.4,16.0,29.65,West,261,0.0,0.0,26,0.00,,---,0.00,VWS V14.00,2013-05-18 10:31:00,
2013-05-18 05:32:00,49.4,16.8,29.65,West,261,0.0,0.0,27,0.00,,---,0.00,VWS V14.00,2013-05-18 10:32:00,
2013-05-18 05:33:00,49.4,16.8,29.65,West,261,0.0,0.0,27,0.00,,---,0.00,VWS V14.00,2013-05-18 10:33:00,
2013-05-18 05:34:00,49.2,18.3,29.65,West,261,0.0,0.0,29,0.00,,---,0.00,VWS V14.00,2013-05-18 10:34:00,
2013-05-18 05:36:00,49.2,16.7,29.65,West,261,0.0,0.0,27,0.00,,---,0.00,VWS V14.00,2013-05-18 10:36:00,
2013-05-18 05:37:00,49.2,16.7,29.65,West,261,0.0,0.0,27,0.00,,---,0.00,VWS V14.00,2013-05-18 10:37:00,
2013-05-18 05:38:00,49.2,16.7,29.65,West,261,0.0,0.0,27,0.00,,---,0.00,VWS V14.00,2013-05-18 10:38:00,
2013-05-18 05:40:00,49.2,17.5,29.65,West,261,0.0,0.0,28,0.00,,---,0.00,VWS V14.00,2013-05-18 10:40:00,
2013-05-18 05:41:00,49.1,20.5,29.65,West,261,0.0,0.0,32,0.00,,---,0.00,VWS V14.00,2013-05-18 10:41:00,
2013-05-18 05:42:00,48.9,21.1,29.65,West,261,0.0,0.0,33,0.00,,---,0.00,VWS V14.00,2013-05-18 10:42:00,
2013-05-18 05:43:00,48.8,21.0,29.65,West,261,0.0,0.0,33,0.00,,---,0.00,VWS V14.00,2013-05-18 10:43:00,
2013-05-18 05:45:00,48.5,18.5,29.65,West,261,0.0,0.0,30,0.00,,---,0.00,VWS V14.00,2013-05-18 10:45:00,
2013-05-18 05:46:00,48.5,20.0,29.65,West,261,0.0,0.0,32,0.00,,---,0.00,VWS V14.00,2013-05-18 10:46:00,
2013-05-18 05:47:00,48.3,18.3,29.65,West,261,0.0,0.0,30,0.00,,---,0.00,VWS V14.00,2013-05-18 10:47:00,
2013-05-18 05:48:00,48.3,18.3,29.65,West,261,0.0,0.0,30,0.00,,---,0.00,VWS V14.00,2013-05-18 10:48:00,
2013-05-18 05:50:00,48.8,18.8,29.65,West,261,0.0,0.0,30,0.00,,---,0.00,VWS V14.00,2013-05-18 10:50:00,
2013-05-18 05:51:00,48.8,17.2,29.65,West,261,0.0,0.0,28,0.00,,---,0.00,VWS V14.00,2013-05-18 10:51:00,
2013-05-18 05:52:00,48.8,17.2,29.65,West,261,0.0,0.0,28,0.00,,---,0.00,VWS V14.00,2013-05-18 10:52:00,
2013-05-18 05:53:00,48.8,18.0,29.65,West,261,0.0,0.0,29,0.00,,---,0.00,VWS V14.00,2013-05-18 10:53:00,
2013-05-18 05:55:00,48.6,17.0,29.65,West,261,0.0,0.0,28,0.00,,---,0.00,VWS V14.00,2013-05-18 10:55:00,
2013-05-18 05:56:00,48.6,17.0,29.65,West,261,0.0,0.0,28,0.00,,---,0.00,VWS V14.00,2013-05-18 10:56:00,
2013-05-18 05:58:00,48.5,17.7,29.65,West,261,0.0,0.0,29,0.00,,---,0.00,VWS V14.00,2013-05-18 10:58:00,
2013-05-18 06:01:00,48.3,15.9,29.65,West,261,0.0,0.0,27,0.00,,---,0.00,VWS V14.00,2013-05-18 11:01:00,
2013-05-18 06:02:00,48.3,16.7,29.65,West,261,0.0,0.0,28,0.00,,---,0.00,VWS V14.00,2013-05-18 11:02:00,
2013-05-18 06:03:00,48.3,16.7,29.65,West,261,0.0,0.0,28,0.00,,---,0.00,VWS V14.00,2013-05-18 11:03:00,
2013-05-18 06:04:00,48.2,18.2,29.65,West,261,0.0,0.0,30,0.00,,---,0.00,VWS V14.00,2013-05-18 11:04:00,
2013-05-18 06:06:00,47.9,18.0,29.65,West,261,0.0,0.0,30,0.00,,---,0.00,VWS V14.00,2013-05-18 11:06:00,
2013-05-18 06:07:00,47.9,18.7,29.65,West,261,0.0,0.0,31,0.00,,---,0.00,VWS V14.00,2013-05-18 11:07:00,
2013-05-18 06:08:00,47.7,18.6,29.65,West,261,0.0,0.0,31,0.00,,---,0.00,VWS V14.00,2013-05-18 11:08:00,
2013-05-18 06:09:00,47.7,17.8,29.65,West,261,0.0,0.0,30,0.00,,---,0.00,VWS V14.00,2013-05-18 11:09:00,
2013-05-18 06:11:00,47.4,18.3,29.65,West,261,0.0,0.0,31,0.00,,---,0.00,VWS V14.00,2013-05-18 11:11:00,
2013-05-18 06:12:00,47.4,16.8,29.65,West,261,0.0,0.0,29,0.00,,---,0.00,VWS V14.00,2013-05-18 11:12:00,
2013-05-18 06:13:00,47.6,16.1,29.65,West,261,0.0,0.0,28,0.00,,---,0.00,VWS V14.00,2013-05-18 11:13:00,
2013-05-18 06:14:00,47.6,16.1,29.67,West,261,0.0,0.0,28,0.00,,---,0.00,VWS V14.00,2013-05-18 11:14:00,
2013-05-18 06:16:00,47.7,17.0,29.67,West,261,0.0,0.0,29,0.00,,---,0.00,VWS V14.00,2013-05-18 11:16:00,
2013-05-18 06:18:00,48.0,15.6,29.67,West,261,0.0,0.0,27,0.00,,---,0.00,VWS V14.00,2013-05-18 11:18:00,
2013-05-18 06:19:00,48.6,13.5,29.67,West,261,0.0,0.0,24,0.00,,---,0.00,VWS V14.00,2013-05-18 11:19:00,
2013-05-18 06:21:00,48.9,17.2,29.67,West,261,0.0,0.0,28,0.00,,---,0.00,VWS V14.00,2013-05-18 11:21:00,
2013-05-18 06:23:00,49.2,15.8,29.67,West,261,0.0,0.0,26,0.00,,---,0.00,VWS V14.00,2013-05-18 11:23:00,
2013-05-18 06:24:00,49.4,16.0,29.67,West,261,0.0,0.0,26,0.00,,---,0.00,VWS V14.00,2013-05-18 11:24:00,
2013-05-18 06:26:00,49.8,16.3,29.67,West,261,0.0,0.0,26,0.00,,---,0.00,VWS V14.00,2013-05-18 11:26:00,
2013-05-18 06:28:00,49.9,16.4,29.66,West,261,0.0,0.0,26,0.00,,---,0.00,VWS V14.00,2013-05-18 11:28:00,
2013-05-18 06:29:00,49.9,16.4,29.66,West,261,0.0,0.0,26,0.00,,---,0.00,VWS V14.00,2013-05-18 11:29:00,
2013-05-18 06:31:00,49.9,16.4,29.66,West,261,0.0,0.0,26,0.00,,---,0.00,VWS V14.00,2013-05-18 11:31:00,
2013-05-18 06:34:00,50.1,13.8,29.66,West,261,0.0,0.0,23,0.00,,---,0.00,VWS V14.00,2013-05-18 11:34:00,
2013-05-18 06:36:00,50.2,16.6,29.66,West,261,0.0,0.0,26,0.00,,---,0.00,VWS V14.00,2013-05-18 11:36:00,
2013-05-18 06:39:00,50.8,16.3,29.66,West,261,0.0,0.0,25,0.00,,---,0.00,VWS V14.00,2013-05-18 11:39:00,
2013-05-18 06:41:00,51.3,12.7,29.66,West,261,0.0,0.0,21,0.00,,---,0.00,VWS V14.00,2013-05-18 11:41:00,
2013-05-18 06:44:00,51.6,14.0,29.67,West,261,0.0,0.0,22,0.00,,---,0.00,VWS V14.00,2013-05-18 11:44:00,
2013-05-18 06:46:00,51.9,12.1,29.67,West,261,0.0,0.0,20,0.00,,---,0.00,VWS V14.00,2013-05-18 11:46:00,
2013-05-18 06:49:00,52.0,14.4,29.67,West,261,0.0,0.0,22,0.00,,---,0.00,VWS V14.00,2013-05-18 11:49:00,
2013-05-18 06:50:00,53.2,15.4,29.67,WSW,256,2.0,2.0,22,0.00,,---,0.00,VWS V14.00,2013-05-18 11:50:00,
2013-05-18 06:51:00,54.1,16.1,29.67,WSW,256,0.0,5.0,22,0.00,,---,0.00,VWS V14.00,2013-05-18 11:51:00,
2013-05-18 06:54:00,55.3,17.1,29.67,WSW,256,0.0,5.0,22,0.00,,---,0.00,VWS V14.00,2013-05-18 11:54:00,
2013-05-18 06:55:00,55.4,17.2,29.67,WSW,256,0.0,5.0,22,0.00,,---,0.00,VWS V14.00,2013-05-18 11:55:00,
2013-05-18 06:57:00,56.0,16.6,29.67,WSW,256,0.0,5.0,21,0.00,,---,0.00,VWS V14.00,2013-05-18 11:57:00,
2013-05-18 06:59:00,56.7,17.2,29.64,WSW,256,0.0,5.0,21,0.00,,---,0.00,VWS V14.00,2013-05-18 11:59:00,
2013-05-18 07:00:00,57.2,17.6,29.64,WSW,256,0.0,0.0,21,0.00,,---,0.00,VWS V14.00,2013-05-18 12:00:00,
2013-05-18 07:02:00,57.6,18.0,29.64,WSW,256,0.0,0.0,21,0.00,,---,0.00,VWS V14.00,2013-05-18 12:02:00,
2013-05-18 07:04:00,58.6,17.7,29.64,WSW,256,0.0,0.0,20,0.00,,---,0.00,VWS V14.00,2013-05-18 12:04:00,
2013-05-18 07:05:00,58.7,17.8,29.64,WSW,256,0.0,0.0,20,0.00,,---,0.00,VWS V14.00,2013-05-18 12:05:00,
2013-05-18 07:07:00,59.3,19.4,29.64,WSW,256,0.0,0.0,21,0.00,,---,0.00,VWS V14.00,2013-05-18 12:07:00,
2013-05-18 07:09:00,59.6,18.5,29.64,WSW,256,0.0,0.0,20,0.00,,---,0.00,VWS V14.00,2013-05-18 12:09:00,
2013-05-18 07:10:00,59.6,18.5,29.64,WSW,256,0.0,0.0,20,0.00,,---,0.00,VWS V14.00,2013-05-18 12:10:00,
2013-05-18 07:11:00,59.8,18.7,29.64,WSW,256,0.0,0.0,20,0.00,,---,0.00,VWS V14.00,2013-05-18 12:11:00,
2013-05-18 07:12:00,59.8,18.7,29.64,WSW,256,0.0,0.0,20,0.00,,---,0.00,VWS V14.00,2013-05-18 12:12:00,
2013-05-18 07:15:00,60.1,20.1,29.63,WSW,256,0.0,0.0,21,0.00,,---,0.00,VWS V14.00,2013-05-18 12:15:00,
2013-05-18 07:16:00,60.1,20.1,29.63,WSW,256,0.0,0.0,21,0.00,,---,0.00,VWS V14.00,2013-05-18 12:16:00,
2013-05-18 07:17:00,60.1,20.1,29.63,WSW,256,0.0,0.0,21,0.00,,---,0.00,VWS V14.00,2013-05-18 12:17:00,
2013-05-18 07:20:00,59.9,19.9,29.63,WSW,256,0.0,0.0,21,0.00,,---,0.00,VWS V14.00,2013-05-18 12:20:00,
2013-05-18 07:21:00,59.9,19.9,29.63,WSW,256,0.0,0.0,21,0.00,,---,0.00,VWS V14.00,2013-05-18 12:21:00,
2013-05-18 07:22:00,59.9,19.9,29.63,WSW,256,0.0,0.0,21,0.00,,---,0.00,VWS V14.00,2013-05-18 12:22:00,
2013-05-18 07:25:00,60.2,21.2,29.63,WSW,256,0.0,0.0,22,0.00,,---,0.00,VWS V14.00,2013-05-18 12:25:00,
2013-05-18 07:26:00,60.2,20.1,29.63,WSW,256,0.0,0.0,21,0.00,,---,0.00,VWS V14.00,2013-05-18 12:26:00,
2013-05-18 07:27:00,60.2,21.2,29.63,WSW,256,0.0,0.0,22,0.00,,---,0.00,VWS V14.00,2013-05-18 12:27:00,
2013-05-18 07:30:00,60.5,20.4,29.64,WSW,256,0.0,0.0,21,0.00,,---,0.00,VWS V14.00,2013-05-18 12:30:00,
2013-05-18 07:31:00,60.9,19.6,29.64,WSW,256,0.0,0.0,20,0.00,,---,0.00,VWS V14.00,2013-05-18 12:31:00,
2013-05-18 07:32:00,61.3,19.9,29.64,WSW,256,0.0,0.0,20,0.00,,---,0.00,VWS V14.00,2013-05-18 12:32:00,
2013-05-18 07:35:00,62.3,19.5,29.64,WSW,256,0.0,0.0,19,0.00,,---,0.00,VWS V14.00,2013-05-18 12:35:00,
2013-05-18 07:36:00,62.6,19.8,29.64,WSW,256,0.0,0.0,19,0.00,,---,0.00,VWS V14.00,2013-05-18 12:36:00,
2013-05-18 07:38:00,63.5,22.9,29.64,West,265,0.0,0.0,21,0.00,,---,0.00,VWS V14.00,2013-05-18 12:38:00,
2013-05-18 07:40:00,64.7,20.2,29.64,West,264,0.0,0.0,18,0.00,,---,0.00,VWS V14.00,2013-05-18 12:40:00,
2013-05-18 07:41:00,64.8,20.3,29.64,West,264,0.0,0.0,18,0.00,,---,0.00,VWS V14.00,2013-05-18 12:41:00,
2013-05-18 07:43:00,65.8,21.1,29.64,West,264,0.0,0.0,18,0.00,,---,0.00,VWS V14.00,2013-05-18 12:43:00,
2013-05-18 07:45:00,66.4,20.3,29.62,West,264,0.0,0.0,17,0.00,,---,0.00,VWS V14.00,2013-05-18 12:45:00,
2013-05-18 07:46:00,66.4,20.3,29.62,West,264,0.0,0.0,17,0.00,,---,0.00,VWS V14.00,2013-05-18 12:46:00,
2013-05-18 07:48:00,67.1,20.9,29.62,West,264,0.0,0.0,17,0.00,,---,0.00,VWS V14.00,2013-05-18 12:48:00,
2013-05-18 07:50:00,67.8,21.4,29.62,West,263,0.0,0.0,17,0.00,,---,0.00,VWS V14.00,2013-05-18 12:50:00,
2013-05-18 07:51:00,67.8,21.4,29.62,West,263,0.0,0.0,17,0.00,,---,0.00,VWS V14.00,2013-05-18 12:51:00,
2013-05-18 07:52:00,67.9,22.9,29.62,West,263,0.0,0.0,18,0.00,,---,0.00,VWS V14.00,2013-05-18 12:52:00,
2013-05-18 07:53:00,68.4,21.9,29.62,West,268,0.0,0.0,17,0.00,,---,0.00,VWS V14.00,2013-05-18 12:53:00,
2013-05-18 07:56:00,69.4,21.3,29.62,WNW,289,0.0,12.0,16,0.00,,---,0.00,VWS V14.00,2013-05-18 12:56:00,
2013-05-18 07:57:00,69.6,21.5,29.62,West,275,0.0,12.0,16,0.00,,---,0.00,VWS V14.00,2013-05-18 12:57:00,
2013-05-18 07:58:00,69.9,21.7,29.62,West,275,0.0,12.0,16,0.00,,---,0.00,VWS V14.00,2013-05-18 12:58:00,
2013-05-18 08:01:00,70.4,22.1,29.60,West,272,0.0,7.0,16,0.00,,---,0.00,VWS V14.00,2013-05-18 13:01:00,
2013-05-18 08:02:00,70.6,22.3,29.60,West,274,0.0,7.0,16,0.00,,---,0.00,VWS V14.00,2013-05-18 13:02:00,
2013-05-18 08:03:00,70.8,20.9,29.60,West,281,0.0,7.0,15,0.00,,---,0.00,VWS V14.00,2013-05-18 13:03:00,
2013-05-18 08:06:00,71.3,21.3,29.60,WNW,288,6.0,12.0,15,0.00,,---,0.00,VWS V14.00,2013-05-18 13:06:00,
2013-05-18 08:07:00,71.5,21.5,29.60,WNW,287,9.0,12.0,15,0.00,,---,0.00,VWS V14.00,2013-05-18 13:07:00,
2013-05-18 08:09:00,71.6,21.5,29.60,WNW,299,0.0,12.0,15,0.00,,---,0.00,VWS V14.00,2013-05-18 13:09:00,
2013-05-18 08:11:00,72.0,21.9,29.60,West,281,3.0,12.0,15,0.00,,---,0.00,VWS V14.00,2013-05-18 13:11:00,
2013-05-18 08:12:00,72.0,21.9,29.60,WNW,298,5.0,12.0,15,0.00,,---,0.00,VWS V14.00,2013-05-18 13:12:00,
2013-05-18 08:14:00,72.3,22.1,29.61,WNW,292,0.0,12.0,15,0.00,,---,0.00,VWS V14.00,2013-05-18 13:14:00,
2013-05-18 08:16:00,72.5,22.3,29.61,West,278,2.0,12.0,15,0.00,,---,0.00,VWS V14.00,2013-05-18 13:16:00,
2013-05-18 08:17:00,72.7,22.4,29.61,West,280,0.0,12.0,15,0.00,,---,0.00,VWS V14.00,2013-05-18 13:17:00,
2013-05-18 08:19:00,72.8,20.9,29.61,West,275,6.0,12.0,14,0.00,,---,0.00,VWS V14.00,2013-05-18 13:19:00,
2013-05-18 08:21:00,73.0,22.7,29.61,WNW,289,3.0,12.0,15,0.00,,---,0.00,VWS V14.00,2013-05-18 13:21:00,
2013-05-18 08:22:00,73.0,22.7,29.61,WNW,287,1.0,12.0,15,0.00,,---,0.00,VWS V14.00,2013-05-18 13:22:00,
2013-05-18 08:23:00,73.0,22.7,29.61,WNW,285,1.0,12.0,15,0.00,,---,0.00,VWS V14.00,2013-05-18 13:23:00,
2013-05-18 08:24:00,73.2,22.8,29.61,West,275,8.0,12.0,15,0.00,,---,0.00,VWS V14.00,2013-05-18 13:24:00,
2013-05-18 08:26:00,73.3,22.9,29.61,WNW,282,11.0,18.0,15,0.00,,---,0.00,VWS V14.00,2013-05-18 13:26:00,
2013-05-18 08:27:00,73.3,21.3,29.61,WNW,285,5.0,18.0,14,0.00,,---,0.00,VWS V14.00,2013-05-18 13:27:00,
2013-05-18 08:28:00,73.3,22.9,29.61,WNW,295,0.0,18.0,15,0.00,,---,0.00,VWS V14.00,2013-05-18 13:28:00,
2013-05-18 08:29:00,73.3,22.9,29.61,West,261,0.0,18.0,15,0.00,,---,0.00,VWS V14.00,2013-05-18 13:29:00,
2013-05-18 08:32:00,73.5,21.4,29.61,West,272,1.0,11.0,14,0.00,,---,0.00,VWS V14.00,2013-05-18 13:32:00,
2013-05-18 08:33:00,73.7,23.2,29.61,NW,308,6.0,11.0,15,0.00,,---,0.00,VWS V14.00,2013-05-18 13:33:00,
2013-05-18 08:34:00,73.7,19.8,29.61,NW,305,5.0,11.0,13,0.00,,---,0.00,VWS V14.00,2013-05-18 13:34:00,
2013-05-18 08:37:00,73.9,21.7,29.61,WNW,292,11.0,12.0,14,0.00,,---,0.00,VWS V14.00,2013-05-18 13:37:00,
2013-05-18 08:38:00,73.9,23.4,29.61,WNW,295,0.0,12.0,15,0.00,,---,0.00,VWS V14.00,2013-05-18 13:38:00,
2013-05-18 08:39:00,74.0,21.8,29.61,West,268,5.0,12.0,14,0.00,,---,0.00,VWS V14.00,2013-05-18 13:39:00,
2013-05-18 08:42:00,74.2,23.6,29.61,WNW,299,7.0,12.0,15,0.00,,---,0.00,VWS V14.00,2013-05-18 13:42:00,
2013-05-18 08:43:00,74.0,23.5,29.61,NNE,14,0.0,14.0,15,0.00,,---,0.00,VWS V14.00,2013-05-18 13:43:00,
2013-05-18 08:44:00,74.2,23.6,29.61,WNW,289,10.0,14.0,15,0.00,,---,0.00,VWS V14.00,2013-05-18 13:44:00,
2013-05-18 08:47:00,74.0,23.5,29.61,WNW,299,8.0,20.0,15,0.00,,---,0.00,VWS V14.00,2013-05-18 13:47:00,
2013-05-18 08:48:00,74.0,21.8,29.61,West,275,12.0,20.0,14,0.00,,---,0.00,VWS V14.00,2013-05-18 13:48:00,
2013-05-18 08:49:00,74.0,21.8,29.61,NW,316,10.0,20.0,14,0.00,,---,0.00,VWS V14.00,2013-05-18 13:49:00,
2013-05-18 08:52:00,74.2,23.6,29.61,West,281,7.0,20.0,15,0.00,,---,0.00,VWS V14.00,2013-05-18 13:52:00,
2013-05-18 08:53:00,74.2,23.6,29.61,West,277,11.0,20.0,15,0.00,,---,0.00,VWS V14.00,2013-05-18 13:53:00,
2013-05-18 08:54:00,74.2,23.6,29.61,NW,304,12.0,20.0,15,0.00,,---,0.00,VWS V14.00,2013-05-18 13:54:00,
2013-05-18 08:55:00,74.2,22.0,29.61,WNW,287,10.0,25.0,14,0.00,,---,0.00,VWS V14.00,2013-05-18 13:55:00,
2013-05-18 08:57:00,74.2,22.0,29.61,NW,316,10.0,25.0,14,0.00,,---,0.00,VWS V14.00,2013-05-18 13:57:00,
2013-05-18 08:58:00,74.2,22.0,29.61,NW,312,8.0,25.0,14,0.00,,---,0.00,VWS V14.00,2013-05-18 13:58:00,
2013-05-18 08:59:00,74.4,22.1,29.62,WNW,282,12.0,25.0,14,0.00,,---,0.00,VWS V14.00,2013-05-18 13:59:00,
2013-05-18 09:00:00,74.4,22.1,29.62,NW,304,13.0,15.0,14,0.00,,---,0.00,VWS V14.00,2013-05-18 14:00:00,
2013-05-18 09:02:00,74.6,22.3,29.62,WNW,301,17.0,20.0,14,0.00,,---,0.00,VWS V14.00,2013-05-18 14:02:00,
2013-05-18 09:03:00,74.4,22.1,29.62,NW,311,14.0,20.0,14,0.00,,---,0.00,VWS V14.00,2013-05-18 14:03:00,
2013-05-18 09:04:00,74.6,23.9,29.62,West,268,12.0,20.0,15,0.00,,---,0.00,VWS V14.00,2013-05-18 14:04:00,
2013-05-18 09:05:00,74.6,22.3,29.62,WNW,291,6.0,20.0,14,0.00,,---,0.00,VWS V14.00,2013-05-18 14:05:00,
2013-05-18 09:07:00,74.7,24.0,29.62,WNW,294,7.0,20.0,15,0.00,,---,0.00,VWS V14.00,2013-05-18 14:07:00,
2013-05-18 09:08:00,74.9,24.2,29.62,WNW,302,5.0,20.0,15,0.00,,---,0.00,VWS V14.00,2013-05-18 14:08:00,
2013-05-18 09:09:00,74.9,24.2,29.62,WSW,257,9.0,20.0,15,0.00,,---,0.00,VWS V14.00,2013-05-18 14:09:00,
2013-05-18 09:10:00,74.9,22.5,29.62,West,272,11.0,20.0,14,0.00,,---,0.00,VWS V14.00,2013-05-18 14:10:00,
2013-05-18 09:13:00,75.1,24.3,29.62,WNW,284,10.0,20.0,15,0.00,,---,0.00,VWS V14.00,2013-05-18 14:13:00,
2013-05-18 09:14:00,75.3,22.9,29.62,WNW,289,5.0,20.0,14,0.00,,---,0.00,VWS V14.00,2013-05-18 14:14:00,
2013-05-18 09:15:00,75.3,22.9,29.62,WNW,298,12.0,20.0,14,0.00,,---,0.00,VWS V14.00,2013-05-18 14:15:00,
2013-05-18 09:18:00,75.4,22.9,29.62,WNW,295,10.0,20.0,14,0.00,,---,0.00,VWS V14.00,2013-05-18 14:18:00,
2013-05-18 09:19:00,75.4,22.9,29.62,WNW,301,17.0,20.0,14,0.00,,---,0.00,VWS V14.00,2013-05-18 14:19:00,
2013-05-18 09:20:00,75.3,24.5,29.62,NW,309,10.0,20.0,15,0.00,,---,0.00,VWS V14.00,2013-05-18 14:20:00,
2013-05-18 09:23:00,75.3,22.9,29.62,WNW,284,6.0,20.0,14,0.00,,---,0.00,VWS V14.00,2013-05-18 14:23:00,
2013-05-18 09:24:00,75.4,22.9,29.62,WNW,284,5.0,20.0,14,0.00,,---,0.00,VWS V14.00,2013-05-18 14:24:00,
2013-05-18 09:25:00,75.6,24.7,29.62,NW,306,6.0,20.0,15,0.00,,---,0.00,VWS V14.00,2013-05-18 14:25:00,
2013-05-18 09:29:00,75.8,26.5,29.62,West,271,8.0,20.0,16,0.00,,---,0.00,VWS V14.00,2013-05-18 14:29:00,
2013-05-18 09:30:00,75.8,24.9,29.62,WNW,302,17.0,17.0,15,0.00,,---,0.00,VWS V14.00,2013-05-18 14:30:00,
2013-05-18 09:31:00,75.8,26.5,29.62,WNW,291,15.0,17.0,16,0.00,,---,0.00,VWS V14.00,2013-05-18 14:31:00,
2013-05-18 09:34:00,75.8,23.2,29.62,West,267,14.0,18.0,14,0.00,,---,0.00,VWS V14.00,2013-05-18 14:34:00,
2013-05-18 09:35:00,76.0,23.4,29.62,West,277,3.0,18.0,14,0.00,,---,0.00,VWS V14.00,2013-05-18 14:35:00,
2013-05-18 09:36:00,76.0,23.4,29.62,NW,308,13.0,18.0,14,0.00,,---,0.00,VWS V14.00,2013-05-18 14:36:00,
2013-05-18 09:39:00,76.0,25.1,29.62,West,278,12.0,24.0,15,0.00,,---,0.00,VWS V14.00,2013-05-18 14:39:00,
2013-05-18 09:40:00,75.8,24.9,29.62,WNW,284,10.0,24.0,15,0.00,,---,0.00,VWS V14.00,2013-05-18 14:40:00,
2013-05-18 09:41:00,75.8,24.9,29.62,WNW,288,8.0,24.0,15,0.00,,---,0.00,VWS V14.00,2013-05-18 14:41:00,
2013-05-18 09:44:00,76.0,25.1,29.62,West,281,8.0,24.0,15,0.00,,---,0.00,VWS V14.00,2013-05-18 14:44:00,
2013-05-18 09:45:00,76.0,25.1,29.62,NW,305,13.0,24.0,15,0.00,,---,0.00,VWS V14.00,2013-05-18 14:45:00,
2013-05-18 09:47:00,76.0,25.1,29.62,WNW,288,13.0,24.0,15,0.00,,---,0.00,VWS V14.00,2013-05-18 14:47:00,
2013-05-18 09:49:00,76.3,23.6,29.62,NW,319,11.0,24.0,14,0.00,,---,0.00,VWS V14.00,2013-05-18 14:49:00,
2013-05-18 09:50:00,76.5,25.5,29.62,NNW,328,12.0,24.0,15,0.00,,---,0.00,VWS V14.00,2013-05-18 14:50:00,
2013-05-18 09:51:00,76.3,25.3,29.62,NW,312,17.0,24.0,15,0.00,,---,0.00,VWS V14.00,2013-05-18 14:51:00,
2013-05-18 09:52:00,76.1,25.1,29.62,NW,304,7.0,24.0,15,0.00,,---,0.00,VWS V14.00,2013-05-18 14:52:00,
2013-05-18 09:54:00,76.1,23.5,29.62,WNW,295,12.0,24.0,14,0.00,,---,0.00,VWS V14.00,2013-05-18 14:54:00,
2013-05-18 09:55:00,76.1,21.7,29.62,WNW,301,13.0,24.0,13,0.00,,---,0.00,VWS V14.00,2013-05-18 14:55:00,
2013-05-18 09:56:00,76.1,23.5,29.62,West,278,8.0,24.0,14,0.00,,---,0.00,VWS V14.00,2013-05-18 14:56:00,
2013-05-18 09:57:00,76.3,23.6,29.62,NW,304,11.0,24.0,14,0.00,,---,0.00,VWS V14.00,2013-05-18 14:57:00,
2013-05-18 09:59:00,76.3,21.9,29.62,NNW,336,11.0,24.0,13,0.00,,---,0.00,VWS V14.00,2013-05-18 14:59:00,
2013-05-18 10:00:00,76.5,22.0,29.62,WNW,299,11.0,18.0,13,0.00,,---,0.00,VWS V14.00,2013-05-18 15:00:00,
2013-05-18 10:01:00,76.5,22.0,29.62,WNW,298,11.0,18.0,13,0.00,,---,0.00,VWS V14.00,2013-05-18 15:01:00,
2013-05-18 10:02:00,76.7,24.0,29.62,NW,304,11.0,18.0,14,0.00,,---,0.00,VWS V14.00,2013-05-18 15:02:00,
2013-05-18 10:04:00,76.7,25.6,29.62,NW,318,19.0,19.0,15,0.00,,---,0.00,VWS V14.00,2013-05-18 15:04:00,
2013-05-18 10:05:00,76.7,24.0,29.62,NNW,329,12.0,19.0,14,0.00,,---,0.00,VWS V14.00,2013-05-18 15:05:00,
2013-05-18 10:06:00,76.5,23.8,29.62,NW,309,12.0,19.0,14,0.00,,---,0.00,VWS V14.00,2013-05-18 15:06:00,
2013-05-18 10:07:00,76.7,24.0,29.62,WNW,296,10.0,19.0,14,0.00,,---,0.00,VWS V14.00,2013-05-18 15:07:00,
2013-05-18 10:10:00,76.8,22.3,29.62,WNW,301,10.0,19.0,13,0.00,,---,0.00,VWS V14.00,2013-05-18 15:10:00,
2013-05-18 10:11:00,77.0,22.4,29.62,West,277,13.0,19.0,13,0.00,,---,0.00,VWS V14.00,2013-05-18 15:11:00,
2013-05-18 10:12:00,77.0,24.2,29.62,WNW,296,10.0,19.0,14,0.00,,---,0.00,VWS V14.00,2013-05-18 15:12:00,
2013-05-18 10:15:00,77.0,22.4,29.63,NW,312,8.0,22.0,13,0.00,,---,0.00,VWS V14.00,2013-05-18 15:15:00,
2013-05-18 10:16:00,76.8,22.3,29.63,WNW,296,9.0,22.0,13,0.00,,---,0.00,VWS V14.00,2013-05-18 15:16:00,
2013-05-18 10:17:00,77.0,22.4,29.63,NW,313,15.0,22.0,13,0.00,,---,0.00,VWS V14.00,2013-05-18 15:17:00,
2013-05-18 10:21:00,77.4,24.5,29.63,NW,326,12.0,22.0,14,0.00,,---,0.00,VWS V14.00,2013-05-18 15:21:00,
2013-05-18 10:22:00,77.6,24.7,29.63,WNW,284,11.0,22.0,14,0.00,,---,0.00,VWS V14.00,2013-05-18 15:22:00,
2013-05-18 10:26:00,77.7,24.8,29.63,WNW,289,11.0,22.0,14,0.00,,---,0.00,VWS V14.00,2013-05-18 15:26:00,
2013-05-18 10:28:00,77.6,22.9,29.63,WNW,287,11.0,22.0,13,0.00,,---,0.00,VWS V14.00,2013-05-18 15:28:00,
2013-05-18 10:31:00,77.2,24.4,29.63,WNW,282,6.0,17.0,14,0.00,,---,0.00,VWS V14.00,2013-05-18 15:31:00,
2013-05-18 10:33:00,77.6,24.7,29.63,WNW,287,16.0,17.0,14,0.00,,---,0.00,VWS V14.00,2013-05-18 15:33:00,
2013-05-18 10:36:00,77.9,23.1,29.63,WSW,246,7.0,17.0,13,0.00,,---,0.00,VWS V14.00,2013-05-18 15:36:00,
2013-05-18 10:37:00,77.9,23.1,29.63,WNW,285,7.0,17.0,13,0.00,,---,0.00,VWS V14.00,2013-05-18 15:37:00,
2013-05-18 10:38:00,78.3,25.2,29.63,WNW,298,12.0,18.0,14,0.00,,---,0.00,VWS V14.00,2013-05-18 15:38:00,
2013-05-18 10:42:00,78.1,21.4,29.63,NW,308,16.0,20.0,12,0.00,,---,0.00,VWS V14.00,2013-05-18 15:42:00,
2013-05-18 10:43:00,77.7,24.8,29.63,NW,306,12.0,20.0,14,0.00,,---,0.00,VWS V14.00,2013-05-18 15:43:00,
2013-05-18 10:47:00,78.5,23.6,29.62,WNW,294,13.0,20.0,13,0.00,,---,0.00,VWS V14.00,2013-05-18 15:47:00,
2013-05-18 10:48:00,78.8,23.9,29.62,WNW,299,10.0,20.0,13,0.00,,---,0.00,VWS V14.00,2013-05-18 15:48:00,
2013-05-18 10:52:00,79.0,24.0,29.62,WNW,289,12.0,20.0,13,0.00,,---,0.00,VWS V14.00,2013-05-18 15:52:00,
2013-05-18 10:53:00,78.8,23.9,29.62,NW,325,15.0,20.0,13,0.00,,---,0.00,VWS V14.00,2013-05-18 15:53:00,
2013-05-18 10:57:00,79.0,24.0,29.62,WNW,299,10.0,20.0,13,0.00,,---,0.00,VWS V14.00,2013-05-18 15:57:00,
2013-05-18 10:59:00,79.0,24.0,29.61,NNW,328,14.0,20.0,13,0.00,,---,0.00,VWS V14.00,2013-05-18 15:59:00,
2013-05-18 11:02:00,79.2,24.2,29.61,WNW,285,0.0,14.0,13,0.00,,---,0.00,VWS V14.00,2013-05-18 16:02:00,
2013-05-18 11:04:00,79.8,24.6,29.61,West,275,0.0,14.0,13,0.00,,---,0.00,VWS V14.00,2013-05-18 16:04:00,
2013-05-18 11:07:00,79.9,24.7,29.61,NW,304,18.0,18.0,13,0.00,,---,0.00,VWS V14.00,2013-05-18 16:07:00,
2013-05-18 11:08:00,79.6,26.3,29.61,NW,308,14.0,19.0,14,0.00,,---,0.00,VWS V14.00,2013-05-18 16:08:00,
2013-05-18 11:09:00,79.2,25.9,29.61,WNW,294,7.0,19.0,14,0.00,,---,0.00,VWS V14.00,2013-05-18 16:09:00,
2013-05-18 11:12:00,79.4,24.3,29.61,NW,304,15.0,19.0,13,0.00,,---,0.00,VWS V14.00,2013-05-18 16:12:00,
2013-05-18 11:13:00,79.2,24.2,29.61,NW,308,14.0,19.0,13,0.00,,---,0.00,VWS V14.00,2013-05-18 16:13:00,
2013-05-18 11:14:00,79.8,26.4,29.62,WNW,294,7.0,19.0,14,0.00,,---,0.00,VWS V14.00,2013-05-18 16:14:00,
2013-05-18 11:17:00,79.8,24.6,29.62,WNW,301,7.0,19.0,13,0.00,,---,0.00,VWS V14.00,2013-05-18 16:17:00,
2013-05-18 11:18:00,79.9,24.7,29.62,WNW,294,6.0,19.0,13,0.00,,---,0.00,VWS V14.00,2013-05-18 16:18:00,
2013-05-18 11:19:00,79.6,26.3,29.62,NW,319,7.0,19.0,14,0.00,,---,0.00,VWS V14.00,2013-05-18 16:19:00,
2013-05-18 11:22:00,79.4,26.1,29.62,NW,311,14.0,19.0,14,0.00,,---,0.00,VWS V14.00,2013-05-18 16:22:00,
2013-05-18 11:23:00,79.2,24.2,29.62,NW,323,13.0,19.0,13,0.00,,---,0.00,VWS V14.00,2013-05-18 16:23:00,
2013-05-18 11:24:00,79.4,24.3,29.62,NW,304,13.0,20.0,13,0.00,,---,0.00,VWS V14.00,2013-05-18 16:24:00,
2013-05-18 11:27:00,79.9,24.7,29.62,West,278,8.0,20.0,13,0.00,,---,0.00,VWS V14.00,2013-05-18 16:27:00,
2013-05-18 11:28:00,79.4,24.3,29.62,West,270,14.0,20.0,13,0.00,,---,0.00,VWS V14.00,2013-05-18 16:28:00,
2013-05-18 11:29:00,79.8,26.4,29.63,West,280,12.0,12.0,14,0.00,,---,0.00,VWS V14.00,2013-05-18 16:29:00,
2013-05-18 11:33:00,80.1,23.0,29.63,WNW,298,14.0,14.0,12,0.00,,---,0.00,VWS V14.00,2013-05-18 16:33:00,
2013-05-18 11:35:00,79.9,24.7,29.63,WNW,291,6.0,18.0,13,0.00,,---,0.00,VWS V14.00,2013-05-18 16:35:00,
2013-05-18 11:38:00,79.8,24.6,29.63,WNW,296,12.0,18.0,13,0.00,,---,0.00,VWS V14.00,2013-05-18 16:38:00,
2013-05-18 11:39:00,79.4,24.3,29.63,NW,306,8.0,18.0,13,0.00,,---,0.00,VWS V14.00,2013-05-18 16:39:00,
2013-05-18 11:40:00,79.6,24.5,29.63,NW,315,12.0,18.0,13,0.00,,---,0.00,VWS V14.00,2013-05-18 16:40:00,
2013-05-18 11:43:00,79.6,24.5,29.63,NW,304,10.0,19.0,13,0.00,,---,0.00,VWS V14.00,2013-05-18 16:43:00,
2013-05-18 11:44:00,79.9,24.7,29.63,NW,313,9.0,19.0,13,0.00,,---,0.00,VWS V14.00,2013-05-18 16:44:00,
2013-05-18 11:45:00,80.3,25.0,29.63,NW,318,11.0,19.0,13,0.00,,---,0.00,VWS V14.00,2013-05-18 16:45:00,
2013-05-18 11:48:00,80.1,26.6,29.63,NW,316,6.0,19.0,14,0.00,,---,0.00,VWS V14.00,2013-05-18 16:48:00,
2013-05-18 11:49:00,79.9,24.7,29.63,NW,311,10.0,19.0,13,0.00,,---,0.00,VWS V14.00,2013-05-18 16:49:00,
2013-05-18 11:50:00,80.5,25.2,29.63,NW,305,10.0,19.0,13,0.00,,---,0.00,VWS V14.00,2013-05-18 16:50:00,
2013-05-18 11:53:00,80.1,23.0,29.63,West,280,16.0,19.0,12,0.00,,---,0.00,VWS V14.00,2013-05-18 16:53:00,
2013-05-18 11:54:00,79.9,22.8,29.63,NW,319,13.0,19.0,12,0.00,,---,0.00,VWS V14.00,2013-05-18 16:54:00,
2013-05-18 11:55:00,80.1,24.9,29.63,WNW,294,7.0,19.0,13,0.00,,---,0.00,VWS V14.00,2013-05-18 16:55:00,
2013-05-18 11:58:00,79.8,26.4,29.63,NW,304,11.0,19.0,14,0.00,,---,0.00,VWS V14.00,2013-05-18 16:58:00,
2013-05-18 11:59:00,79.8,26.4,29.63,WNW,302,11.0,19.0,14,0.00,,---,0.00,VWS V14.00,2013-05-18 16:59:00,
2013-05-18 12:00:00,80.1,23.0,29.63,NW,309,9.0,9.0,12,0.00,,---,0.00,VWS V14.00,2013-05-18 17:00:00,
2013-05-18 12:04:00,79.6,24.5,29.63,NNW,336,11.0,17.0,13,0.00,,---,0.00,VWS V14.00,2013-05-18 17:04:00,
2013-05-18 12:05:00,79.6,24.5,29.63,NNW,337,8.0,17.0,13,0.00,,---,0.00,VWS V14.00,2013-05-18 17:05:00,
2013-05-18 12:09:00,80.9,23.6,29.63,WNW,294,6.0,17.0,12,0.00,,---,0.00,VWS V14.00,2013-05-18 17:09:00,
2013-05-18 12:10:00,80.7,21.4,29.63,North,357,5.0,17.0,11,0.00,,---,0.00,VWS V14.00,2013-05-18 17:10:00,
2013-05-18 12:14:00,81.6,24.1,29.64,NNW,336,10.0,17.0,12,0.00,,---,0.00,VWS V14.00,2013-05-18 17:14:00,
2013-05-18 12:15:00,81.6,26.0,29.64,NW,320,7.0,17.0,13,0.00,,---,0.00,VWS V14.00,2013-05-18 17:15:00,
2013-05-18 12:19:00,81.1,23.7,29.64,West,274,7.0,17.0,12,0.00,,---,0.00,VWS V14.00,2013-05-18 17:19:00,
2013-05-18 12:21:00,81.1,25.6,29.64,SW,226,0.0,17.0,13,0.00,,---,0.00,VWS V14.00,2013-05-18 17:21:00,
2013-05-18 12:24:00,81.6,26.0,29.64,NW,305,12.0,17.0,13,0.00,,---,0.00,VWS V14.00,2013-05-18 17:24:00,
2013-05-18 12:26:00,81.8,24.3,29.64,NW,311,5.0,17.0,12,0.00,,---,0.00,VWS V14.00,2013-05-18 17:26:00,
2013-05-18 12:29:00,82.0,24.4,29.62,WNW,301,0.0,17.0,12,0.00,,---,0.00,VWS V14.00,2013-05-18 17:29:00,
2013-05-18 12:31:00,82.6,24.9,29.62,WSW,237,7.0,11.0,12,0.00,,---,0.00,VWS V14.00,2013-05-18 17:31:00,
2013-05-18 12:34:00,82.0,26.4,29.62,West,267,0.0,12.0,13,0.00,,---,0.00,VWS V14.00,2013-05-18 17:34:00,
2013-05-18 12:36:00,82.0,24.4,29.62,WNW,298,10.0,16.0,12,0.00,,---,0.00,VWS V14.00,2013-05-18 17:36:00,
2013-05-18 12:39:00,82.0,26.4,29.62,NW,318,14.0,17.0,13,0.00,,---,0.00,VWS V14.00,2013-05-18 17:39:00,
2013-05-18 12:40:00,82.0,26.4,29.62,NW,315,14.0,17.0,13,0.00,,---,0.00,VWS V14.00,2013-05-18 17:40:00,
2013-05-18 12:41:00,82.0,24.4,29.62,WNW,301,9.0,17.0,12,0.00,,---,0.00,VWS V14.00,2013-05-18 17:41:00,
2013-05-18 12:44:00,82.8,23.0,29.63,SW,232,10.0,17.0,11,0.00,,---,0.00,VWS V14.00,2013-05-18 17:44:00,
2013-05-18 12:45:00,82.4,22.7,29.63,SW,217,4.0,17.0,11,0.00,,---,0.00,VWS V14.00,2013-05-18 17:45:00,
2013-05-18 12:46:00,82.8,23.0,29.63,SW,216,0.0,17.0,11,0.00,,---,0.00,VWS V14.00,2013-05-18 17:46:00,
2013-05-18 12:49:00,83.6,23.6,29.63,South,189,9.0,18.0,11,0.00,,---,0.00,VWS V14.00,2013-05-18 17:49:00,
2013-05-18 12:50:00,83.6,23.6,29.63,South,175,6.0,18.0,11,0.00,,---,0.00,VWS V14.00,2013-05-18 17:50:00,
2013-05-18 12:51:00,83.4,21.2,29.63,South,184,7.0,18.0,10,0.00,,---,0.00,VWS V14.00,2013-05-18 17:51:00,
2013-05-18 12:55:00,82.8,20.7,29.63,SE,143,0.0,18.0,10,0.00,,---,0.00,VWS V14.00,2013-05-18 17:55:00,
2013-05-18 12:56:00,82.8,20.7,29.63,SSE,148,0.0,18.0,10,0.00,,---,0.00,VWS V14.00,2013-05-18 17:56:00,
2013-05-18 12:57:00,82.8,20.7,29.63,SSE,162,0.0,18.0,10,0.00,,---,0.00,VWS V14.00,2013-05-18 17:57:00,
2013-05-18 13:00:00,82.8,23.0,29.61,SSW,199,0.0,0.0,11,0.00,,---,0.00,VWS V14.00,2013-05-18 18:00:00,
2013-05-18 13:01:00,83.0,23.1,29.61,SSW,200,0.0,0.0,11,0.00,,---,0.00,VWS V14.00,2013-05-18 18:01:00,
2013-05-18 13:05:00,83.2,23.3,29.61,West,265,12.0,15.0,11,0.00,,---,0.00,VWS V14.00,2013-05-18 18:05:00,
2013-05-18 13:06:00,83.0,23.1,29.61,West,271,7.0,15.0,11,0.00,,---,0.00,VWS V14.00,2013-05-18 18:06:00,
2013-05-18 13:07:00,83.0,18.4,29.61,WNW,284,0.0,15.0,9,0.00,,---,0.00,VWS V14.00,2013-05-18 18:07:00,
2013-05-18 13:10:00,83.0,18.4,29.61,South,178,5.0,15.0,9,0.00,,---,0.00,VWS V14.00,2013-05-18 18:10:00,
2013-05-18 13:11:00,83.4,18.7,29.61,SSE,164,2.0,15.0,9,0.00,,---,0.00,VWS V14.00,2013-05-18 18:11:00,
2013-05-18 13:12:00,83.4,18.7,29.61,SSE,164,1.0,15.0,9,0.00,,---,0.00,VWS V14.00,2013-05-18 18:12:00,
2013-05-18 13:15:00,83.4,21.2,29.61,SSW,208,0.0,15.0,10,0.00,,---,0.00,VWS V14.00,2013-05-18 18:15:00,
2013-05-18 13:16:00,83.6,21.3,29.61,WSW,250,5.0,15.0,10,0.00,,---,0.00,VWS V14.00,2013-05-18 18:16:00,
2013-05-18 13:17:00,83.8,21.5,29.61,West,260,6.0,15.0,10,0.00,,---,0.00,VWS V14.00,2013-05-18 18:17:00,
2013-05-18 13:21:00,83.4,21.2,29.61,West,277,0.0,19.0,10,0.00,,---,0.00,VWS V14.00,2013-05-18 18:21:00,
2013-05-18 13:22:00,83.2,21.0,29.61,SW,233,1.0,19.0,10,0.00,,---,0.00,VWS V14.00,2013-05-18 18:22:00,
2013-05-18 13:26:00,83.0,20.9,29.61,WNW,287,8.0,19.0,10,0.00,,---,0.00,VWS V14.00,2013-05-18 18:26:00,
2013-05-18 13:27:00,83.4,21.2,29.61,SW,234,7.0,19.0,10,0.00,,---,0.00,VWS V14.00,2013-05-18 18:27:00,
2013-05-18 13:31:00,83.0,23.1,29.61,WSW,239,0.0,11.0,11,0.00,,---,0.00,VWS V14.00,2013-05-18 18:31:00,
2013-05-18 13:32:00,83.0,20.9,29.61,SSW,203,0.0,11.0,10,0.00,,---,0.00,VWS V14.00,2013-05-18 18:32:00,
2013-05-18 13:36:00,83.2,23.3,29.61,SW,219,0.0,11.0,11,0.00,,---,0.00,VWS V14.00,2013-05-18 18:36:00,
2013-05-18 13:37:00,83.4,21.2,29.61,SSW,202,5.0,12.0,10,0.00,,---,0.00,VWS V14.00,2013-05-18 18:37:00,
2013-05-18 13:38:00,83.8,21.5,29.61,SW,234,5.0,17.0,10,0.00,,---,0.00,VWS V14.00,2013-05-18 18:38:00,
2013-05-18 13:41:00,83.6,21.3,29.61,SW,234,0.0,17.0,10,0.00,,---,0.00,VWS V14.00,2013-05-18 18:41:00,
2013-05-18 13:42:00,83.8,21.5,29.61,SSW,210,7.0,17.0,10,0.00,,---,0.00,VWS V14.00,2013-05-18 18:42:00,
2013-05-18 13:43:00,83.6,21.3,29.61,SSW,195,10.0,17.0,10,0.00,,---,0.00,VWS V14.00,2013-05-18 18:43:00,
2013-05-18 13:46:00,83.8,21.5,29.60,South,181,6.0,17.0,10,0.00,,---,0.00,VWS V14.00,2013-05-18 18:46:00,
2013-05-18 13:47:00,84.0,19.2,29.60,SSW,195,8.0,17.0,9,0.00,,---,0.00,VWS V14.00,2013-05-18 18:47:00,
2013-05-18 13:48:00,83.8,19.0,29.60,South,171,8.0,17.0,9,0.00,,---,0.00,VWS V14.00,2013-05-18 18:48:00,
2013-05-18 13:51:00,83.6,23.6,29.60,SW,224,8.0,17.0,11,0.00,,---,0.00,VWS V14.00,2013-05-18 18:51:00,
2013-05-18 13:53:00,84.0,21.6,29.60,South,169,6.0,17.0,10,0.00,,---,0.00,VWS V14.00,2013-05-18 18:53:00,
2013-05-18 13:56:00,84.1,21.7,29.60,SSE,165,4.0,17.0,10,0.00,,---,0.00,VWS V14.00,2013-05-18 18:56:00,
2013-05-18 13:58:00,85.5,22.8,29.60,SW,233,6.0,24.0,10,0.00,,---,0.00,VWS V14.00,2013-05-18 18:58:00,
2013-05-18 14:01:00,84.9,22.3,29.58,SW,220,14.0,14.0,10,0.00,,---,0.00,VWS V14.00,2013-05-18 19:01:00,
2013-05-18 14:03:00,85.5,22.8,29.58,SW,224,2.0,19.0,10,0.00,,---,0.00,VWS V14.00,2013-05-18 19:03:00,
2013-05-18 14:04:00,85.5,22.8,29.58,SW,229,6.0,19.0,10,0.00,,---,0.00,VWS V14.00,2013-05-18 19:04:00,
2013-05-18 14:06:00,85.1,22.5,29.58,West,263,0.0,19.0,10,0.00,,---,0.00,VWS V14.00,2013-05-18 19:06:00,
2013-05-18 14:08:00,85.3,20.1,29.58,West,260,0.0,19.0,9,0.00,,---,0.00,VWS V14.00,2013-05-18 19:08:00,
2013-05-18 14:09:00,85.3,20.1,29.58,West,260,0.0,19.0,9,0.00,,---,0.00,VWS V14.00,2013-05-18 19:09:00,
2013-05-18 14:11:00,85.1,20.0,29.58,SSW,210,13.0,19.0,9,0.00,,---,0.00,VWS V14.00,2013-05-18 19:11:00,
2013-05-18 14:14:00,85.5,20.3,29.59,South,189,11.0,19.0,9,0.00,,---,0.00,VWS V14.00,2013-05-18 19:14:00,
2013-05-18 14:15:00,85.5,20.3,29.59,SSW,203,10.0,19.0,9,0.00,,---,0.00,VWS V14.00,2013-05-18 19:15:00,
2013-05-18 14:17:00,85.3,20.1,29.59,SW,223,17.0,19.0,9,0.00,,---,0.00,VWS V14.00,2013-05-18 19:17:00,
2013-05-18 14:19:00,85.1,20.0,29.59,SSW,198,5.0,19.0,9,0.00,,---,0.00,VWS V14.00,2013-05-18 19:19:00,
2013-05-18 14:20:00,84.7,19.7,29.59,SW,219,10.0,19.0,9,0.00,,---,0.00,VWS V14.00,2013-05-18 19:20:00,
2013-05-18 14:22:00,84.5,19.5,29.59,SW,215,8.0,19.0,9,0.00,,---,0.00,VWS V14.00,2013-05-18 19:22:00,
2013-05-18 14:24:00,84.5,19.5,29.59,SW,222,0.0,19.0,9,0.00,,---,0.00,VWS V14.00,2013-05-18 19:24:00,
2013-05-18 14:25:00,84.5,19.5,29.59,SW,215,6.0,19.0,9,0.00,,---,0.00,VWS V14.00,2013-05-18 19:25:00,
2013-05-18 14:28:00,84.5,19.5,29.59,SW,227,6.0,19.0,9,0.00,,---,0.00,VWS V14.00,2013-05-18 19:28:00,
2013-05-18 14:29:00,85.1,22.5,29.58,South,188,8.0,11.0,10,0.00,,---,0.00,VWS V14.00,2013-05-18 19:29:00,
2013-05-18 14:30:00,84.7,22.2,29.58,SW,216,16.0,19.0,10,0.00,,---,0.00,VWS V14.00,2013-05-18 19:30:00,
2013-05-18 14:33:00,84.5,22.0,29.58,SSW,192,3.0,19.0,10,0.00,,---,0.00,VWS V14.00,2013-05-18 19:33:00,
2013-05-18 14:34:00,84.3,21.9,29.58,South,172,4.0,19.0,10,0.00,,---,0.00,VWS V14.00,2013-05-18 19:34:00,
2013-05-18 14:35:00,84.5,22.0,29.58,South,176,7.0,19.0,10,0.00,,---,0.00,VWS V14.00,2013-05-18 19:35:00,
2013-05-18 14:38:00,84.3,19.4,29.58,South,181,0.0,19.0,9,0.00,,---,0.00,VWS V14.00,2013-05-18 19:38:00,
2013-05-18 14:40:00,85.1,20.0,29.58,WSW,244,0.0,19.0,9,0.00,,---,0.00,VWS V14.00,2013-05-18 19:40:00,
2013-05-18 14:43:00,85.5,22.8,29.58,SSW,200,6.0,19.0,10,0.00,,---,0.00,VWS V14.00,2013-05-18 19:43:00,
2013-05-18 14:45:00,85.5,20.3,29.57,SSW,209,2.0,19.0,9,0.00,,---,0.00,VWS V14.00,2013-05-18 19:45:00,
2013-05-18 14:46:00,85.3,20.1,29.57,SSW,212,6.0,19.0,9,0.00,,---,0.00,VWS V14.00,2013-05-18 19:46:00,
2013-05-18 14:48:00,84.9,19.8,29.57,WSW,243,0.0,19.0,9,0.00,,---,0.00,VWS V14.00,2013-05-18 19:48:00,
2013-05-18 14:50:00,84.5,19.5,29.57,South,191,0.0,19.0,9,0.00,,---,0.00,VWS V14.00,2013-05-18 19:50:00,
2013-05-18 14:51:00,84.3,19.4,29.57,SSW,195,2.0,19.0,9,0.00,,---,0.00,VWS V14.00,2013-05-18 19:51:00,
2013-05-18 14:54:00,84.9,19.8,29.57,South,191,17.0,20.0,9,0.00,,---,0.00,VWS V14.00,2013-05-18 19:54:00,
2013-05-18 14:55:00,84.9,22.3,29.57,SW,215,13.0,20.0,10,0.00,,---,0.00,VWS V14.00,2013-05-18 19:55:00,
2013-05-18 14:56:00,84.3,21.9,29.57,South,182,3.0,20.0,10,0.00,,---,0.00,VWS V14.00,2013-05-18 19:56:00,
2013-05-18 14:59:00,85.5,22.8,29.57,SSW,202,14.0,17.0,10,0.00,,---,0.00,VWS V14.00,2013-05-18 19:59:00,
2013-05-18 15:00:00,84.9,22.3,29.57,SSW,200,15.0,25.0,10,0.00,,---,0.00,VWS V14.00,2013-05-18 20:00:00,
2013-05-18 15:01:00,84.7,24.4,29.57,South,191,10.0,25.0,11,0.00,,---,0.00,VWS V14.00,2013-05-18 20:01:00,
2013-05-18 15:04:00,84.9,24.6,29.57,SSW,199,8.0,25.0,11,0.00,,---,0.00,VWS V14.00,2013-05-18 20:04:00,
2013-05-18 15:05:00,84.7,24.4,29.57,SSW,212,9.0,25.0,11,0.00,,---,0.00,VWS V14.00,2013-05-18 20:05:00,
2013-05-18 15:06:00,84.7,22.2,29.57,SW,226,3.0,25.0,10,0.00,,---,0.00,VWS V14.00,2013-05-18 20:06:00,
2013-05-18 15:10:00,84.9,22.3,29.57,SW,219,0.0,25.0,10,0.00,,---,0.00,VWS V14.00,2013-05-18 20:10:00,
2013-05-18 15:11:00,85.3,22.6,29.57,West,261,0.0,25.0,10,0.00,,---,0.00,VWS V14.00,2013-05-18 20:11:00,
2013-05-18 15:15:00,86.1,20.7,29.60,West,261,3.0,25.0,9,0.00,,---,0.00,VWS V14.00,2013-05-18 20:15:00,
2013-05-18 15:16:00,85.9,20.6,29.60,South,189,7.0,25.0,9,0.00,,---,0.00,VWS V14.00,2013-05-18 20:16:00,
2013-05-18 15:20:00,85.9,20.6,29.60,South,176,2.0,25.0,9,0.00,,---,0.00,VWS V14.00,2013-05-18 20:20:00,
2013-05-18 15:21:00,86.1,18.0,29.60,WSW,240,0.0,25.0,8,0.00,,---,0.00,VWS V14.00,2013-05-18 20:21:00,
2013-05-18 15:22:00,86.1,18.0,29.60,SSW,212,0.0,25.0,8,0.00,,---,0.00,VWS V14.00,2013-05-18 20:22:00,
2013-05-18 15:25:00,85.9,20.6,29.60,SSE,162,0.0,25.0,9,0.00,,---,0.00,VWS V14.00,2013-05-18 20:25:00,
2013-05-18 15:26:00,85.9,20.6,29.60,SSE,164,0.0,25.0,9,0.00,,---,0.00,VWS V14.00,2013-05-18 20:26:00,
2013-05-18 15:27:00,85.9,20.6,29.60,WSW,258,0.0,25.0,9,0.00,,---,0.00,VWS V14.00,2013-05-18 20:27:00,
2013-05-18 15:30:00,85.7,20.4,29.59,West,271,0.0,0.0,9,0.00,,---,0.00,VWS V14.00,2013-05-18 20:30:00,
2013-05-18 15:31:00,85.7,22.9,29.59,West,261,1.0,6.0,10,0.00,,---,0.00,VWS V14.00,2013-05-18 20:31:00,
2013-05-18 15:32:00,86.1,23.2,29.59,SSW,213,13.0,18.0,10,0.00,,---,0.00,VWS V14.00,2013-05-18 20:32:00,
2013-05-18 15:35:00,86.5,21.0,29.59,SW,230,9.0,18.0,9,0.00,,---,0.00,VWS V14.00,2013-05-18 20:35:00,
2013-05-18 15:36:00,85.9,20.6,29.59,WSW,243,0.0,18.0,9,0.00,,---,0.00,VWS V14.00,2013-05-18 20:36:00,
2013-05-18 15:37:00,85.7,20.4,29.59,SSW,212,11.0,18.0,9,0.00,,---,0.00,VWS V14.00,2013-05-18 20:37:00,
2013-05-18 15:40:00,85.7,20.4,29.59,West,261,7.0,18.0,9,0.00,,---,0.00,VWS V14.00,2013-05-18 20:40:00,
2013-05-18 15:41:00,85.5,20.3,29.59,SSW,213,2.0,18.0,9,0.00,,---,0.00,VWS V14.00,2013-05-18 20:41:00,
2013-05-18 15:42:00,85.3,20.1,29.59,SW,215,0.0,18.0,9,0.00,,---,0.00,VWS V14.00,2013-05-18 20:42:00,
2013-05-18 15:45:00,85.5,17.5,29.59,West,271,11.0,18.0,8,0.00,,---,0.00,VWS V14.00,2013-05-18 20:45:00,
2013-05-18 15:46:00,85.1,20.0,29.59,WSW,253,0.0,18.0,9,0.00,,---,0.00,VWS V14.00,2013-05-18 20:46:00,
2013-05-18 15:47:00,85.3,20.1,29.59,West,281,0.0,18.0,9,0.00,,---,0.00,VWS V14.00,2013-05-18 20:47:00,
2013-05-18 15:48:00,85.7,22.9,29.59,WNW,301,0.0,18.0,10,0.00,,---,0.00,VWS V14.00,2013-05-18 20:48:00,
2013-05-18 15:50:00,85.9,20.6,29.59,South,186,12.0,18.0,9,0.00,,---,0.00,VWS V14.00,2013-05-18 20:50:00,
2013-05-18 15:51:00,85.9,23.1,29.59,WSW,247,5.0,18.0,10,0.00,,---,0.00,VWS V14.00,2013-05-18 20:51:00,
2013-05-18 15:52:00,85.5,20.3,29.59,SW,227,1.0,18.0,9,0.00,,---,0.00,VWS V14.00,2013-05-18 20:52:00,
2013-05-18 15:53:00,85.9,20.6,29.59,West,272,2.0,18.0,9,0.00,,---,0.00,VWS V14.00,2013-05-18 20:53:00,
2013-05-18 15:55:00,85.5,20.3,29.59,SW,216,0.0,18.0,9,0.00,,---,0.00,VWS V14.00,2013-05-18 20:55:00,
2013-05-18 15:56:00,85.7,20.4,29.59,SW,229,2.0,18.0,9,0.00,,---,0.00,VWS V14.00,2013-05-18 20:56:00,
2013-05-18 15:57:00,85.9,20.6,29.59,SW,224,1.0,18.0,9,0.00,,---,0.00,VWS V14.00,2013-05-18 20:57:00,
2013-05-18 15:58:00,85.5,20.3,29.59,West,281,12.0,18.0,9,0.00,,---,0.00,VWS V14.00,2013-05-18 20:58:00,
2013-05-18 16:00:00,85.1,17.2,29.58,WSW,243,3.0,14.0,8,0.00,,---,0.00,VWS V14.00,2013-05-18 21:00:00,
2013-05-18 16:02:00,85.1,17.2,29.58,West,281,13.0,16.0,8,0.00,,---,0.00,VWS V14.00,2013-05-18 21:02:00,
2013-05-18 16:03:00,85.1,17.2,29.58,SSW,210,19.0,19.0,8,0.00,,---,0.00,VWS V14.00,2013-05-18 21:03:00,
2013-05-18 16:04:00,85.5,17.5,29.58,SSW,198,14.0,19.0,8,0.00,,---,0.00,VWS V14.00,2013-05-18 21:04:00,
2013-05-18 16:05:00,85.1,22.5,29.58,SSW,202,8.0,19.0,10,0.00,,---,0.00,VWS V14.00,2013-05-18 21:05:00,
2013-05-18 16:06:00,85.1,22.5,29.58,South,185,9.0,20.0,10,0.00,,---,0.00,VWS V14.00,2013-05-18 21:06:00,
2013-05-18 16:08:00,84.7,19.7,29.58,South,186,0.0,20.0,9,0.00,,---,0.00,VWS V14.00,2013-05-18 21:08:00,
2013-05-18 16:09:00,85.1,22.5,29.58,South,189,2.0,20.0,10,0.00,,---,0.00,VWS V14.00,2013-05-18 21:09:00,
2013-05-18 16:10:00,85.1,17.2,29.58,SSW,199,14.0,20.0,8,0.00,,---,0.00,VWS V14.00,2013-05-18 21:10:00,
2013-05-18 16:13:00,85.7,22.9,29.58,SSW,198,17.0,20.0,10,0.00,,---,0.00,VWS V14.00,2013-05-18 21:13:00,
2013-05-18 16:14:00,85.7,22.9,29.62,SSW,206,19.0,20.0,10,0.00,,---,0.00,VWS V14.00,2013-05-18 21:14:00,
2013-05-18 16:16:00,85.5,20.3,29.62,SW,223,12.0,20.0,9,0.00,,---,0.00,VWS V14.00,2013-05-18 21:16:00,
2013-05-18 16:18:00,85.3,17.4,29.62,SSW,192,1.0,20.0,8,0.00,,---,0.00,VWS V14.00,2013-05-18 21:18:00,
2013-05-18 16:19:00,85.3,20.1,29.62,South,185,0.0,20.0,9,0.00,,---,0.00,VWS V14.00,2013-05-18 21:19:00,
2013-05-18 16:21:00,85.1,20.0,29.62,South,186,0.0,20.0,9,0.00,,---,0.00,VWS V14.00,2013-05-18 21:21:00,
2013-05-18 16:23:00,85.5,20.3,29.62,SSW,196,0.0,20.0,9,0.00,,---,0.00,VWS V14.00,2013-05-18 21:23:00,
2013-05-18 16:24:00,85.7,17.7,29.62,SSW,196,0.0,20.0,8,0.00,,---,0.00,VWS V14.00,2013-05-18 21:24:00,
2013-05-18 16:26:00,85.9,20.6,29.62,SSW,193,9.0,20.0,9,0.00,,---,0.00,VWS V14.00,2013-05-18 21:26:00,
2013-05-18 16:28:00,86.3,18.1,29.61,SSW,210,0.0,20.0,8,0.00,,---,0.00,VWS V14.00,2013-05-18 21:28:00,
2013-05-18 16:29:00,86.5,21.0,29.61,SW,215,10.0,20.0,9,0.00,,---,0.00,VWS V14.00,2013-05-18 21:29:00,
2013-05-18 16:31:00,86.5,21.0,29.61,SSW,208,5.0,17.0,9,0.00,,---,0.00,VWS V14.00,2013-05-18 21:31:00,
2013-05-18 16:34:00,86.1,23.2,29.61,South,191,10.0,17.0,10,0.00,,---,0.00,VWS V14.00,2013-05-18 21:34:00,
2013-05-18 16:36:00,86.1,20.7,29.61,SSW,209,0.0,17.0,9,0.00,,---,0.00,VWS V14.00,2013-05-18 21:36:00,
2013-05-18 16:39:00,86.1,23.2,29.61,SSW,200,0.0,17.0,10,0.00,,---,0.00,VWS V14.00,2013-05-18 21:39:00,
2013-05-18 16:42:00,86.1,23.2,29.61,SSW,209,14.0,17.0,10,0.00,,---,0.00,VWS V14.00,2013-05-18 21:42:00,
2013-05-18 16:44:00,86.7,23.7,29.60,SSW,199,1.0,17.0,10,0.00,,---,0.00,VWS V14.00,2013-05-18 21:44:00,
2013-05-18 16:45:00,86.7,23.7,29.60,SSW,203,0.0,17.0,10,0.00,,---,0.00,VWS V14.00,2013-05-18 21:45:00,
2013-05-18 16:47:00,87.0,21.4,29.60,SSW,209,0.0,17.0,9,0.00,,---,0.00,VWS V14.00,2013-05-18 21:47:00,
2013-05-18 16:49:00,86.7,23.7,29.60,SSW,209,7.0,17.0,10,0.00,,---,0.00,VWS V14.00,2013-05-18 21:49:00,
2013-05-18 16:50:00,87.0,18.7,29.60,South,188,15.0,17.0,8,0.00,,---,0.00,VWS V14.00,2013-05-18 21:50:00,
2013-05-18 16:52:00,86.3,18.1,29.60,South,189,8.0,17.0,8,0.00,,---,0.00,VWS V14.00,2013-05-18 21:52:00,
2013-05-18 16:54:00,86.3,15.1,29.60,SW,220,8.0,17.0,7,0.00,,---,0.00,VWS V14.00,2013-05-18 21:54:00,
2013-05-18 16:55:00,86.1,14.9,29.60,SSW,210,6.0,19.0,7,0.00,,---,0.00,VWS V14.00,2013-05-18 21:55:00,
2013-05-18 16:57:00,85.9,17.8,29.60,SSE,160,3.0,19.0,8,0.00,,---,0.00,VWS V14.00,2013-05-18 21:57:00,
2013-05-18 16:59:00,86.1,20.7,29.60,SSW,193,3.0,19.0,9,0.00,,---,0.00,VWS V14.00,2013-05-18 21:59:00,
2013-05-18 17:00:00,86.5,21.0,29.60,SSW,198,2.0,7.0,9,0.00,,---,0.00,VWS V14.00,2013-05-18 22:00:00,
2013-05-18 17:02:00,86.3,20.9,29.60,SSW,199,11.0,18.0,9,0.00,,---,0.00,VWS V14.00,2013-05-18 22:02:00,
2013-05-18 17:05:00,86.7,18.4,29.60,West,280,10.0,18.0,8,0.00,,---,0.00,VWS V14.00,2013-05-18 22:05:00,
2013-05-18 17:06:00,86.5,18.3,29.60,West,270,7.0,18.0,8,0.00,,---,0.00,VWS V14.00,2013-05-18 22:06:00,
2013-05-18 17:07:00,86.7,15.4,29.60,SW,233,11.0,18.0,7,0.00,,---,0.00,VWS V14.00,2013-05-18 22:07:00,
2013-05-18 17:10:00,86.5,18.3,29.60,WNW,292,6.0,18.0,8,0.00,,---,0.00,VWS V14.00,2013-05-18 22:10:00,
2013-05-18 17:11:00,86.5,18.3,29.60,WNW,292,6.0,18.0,8,0.00,,---,0.00,VWS V14.00,2013-05-18 22:11:00,
2013-05-18 17:12:00,86.3,18.1,29.60,South,191,2.0,18.0,8,0.00,,---,0.00,VWS V14.00,2013-05-18 22:12:00,
2013-05-18 17:16:00,86.7,18.4,29.62,SW,229,11.0,18.0,8,0.00,,---,0.00,VWS V14.00,2013-05-18 22:16:00,
2013-05-18 17:17:00,86.5,15.2,29.62,SW,219,3.0,18.0,7,0.00,,---,0.00,VWS V14.00,2013-05-18 22:17:00,
2013-05-18 17:18:00,86.5,15.2,29.62,SW,232,0.0,18.0,7,0.00,,---,0.00,VWS V14.00,2013-05-18 22:18:00,
2013-05-18 17:21:00,86.3,18.1,29.62,South,176,0.0,18.0,8,0.00,,---,0.00,VWS V14.00,2013-05-18 22:21:00,
2013-05-18 17:22:00,86.5,21.0,29.62,South,182,6.0,18.0,9,0.00,,---,0.00,VWS V14.00,2013-05-18 22:22:00,
2013-05-18 17:23:00,86.3,18.1,29.62,South,176,3.0,18.0,8,0.00,,---,0.00,VWS V14.00,2013-05-18 22:23:00,
2013-05-18 17:24:00,86.3,20.9,29.62,SW,230,7.0,18.0,9,0.00,,---,0.00,VWS V14.00,2013-05-18 22:24:00,
2013-05-18 17:26:00,86.7,21.2,29.62,WSW,239,13.0,18.0,9,0.00,,---,0.00,VWS V14.00,2013-05-18 22:26:00,
2013-05-18 17:27:00,86.3,20.9,29.62,SW,226,12.0,18.0,9,0.00,,---,0.00,VWS V14.00,2013-05-18 22:27:00,
2013-05-18 17:28:00,86.5,21.0,29.62,SW,217,4.0,18.0,9,0.00,,---,0.00,VWS V14.00,2013-05-18 22:28:00,
2013-05-18 17:29:00,86.5,21.0,29.61,SSW,213,8.0,18.0,9,0.00,,---,0.00,VWS V14.00,2013-05-18 22:29:00,
2013-05-18 17:31:00,86.5,23.5,29.61,WSW,251,11.0,17.0,10,0.00,,---,0.00,VWS V14.00,2013-05-18 22:31:00,
2013-05-18 17:32:00,86.3,23.4,29.61,WSW,244,10.0,17.0,10,0.00,,---,0.00,VWS V14.00,2013-05-18 22:32:00,
2013-05-18 17:33:00,86.1,20.7,29.61,West,261,6.0,17.0,9,0.00,,---,0.00,VWS V14.00,2013-05-18 22:33:00,
2013-05-18 17:34:00,85.7,20.4,29.61,WSW,254,2.0,17.0,9,0.00,,---,0.00,VWS V14.00,2013-05-18 22:34:00,
2013-05-18 17:37:00,85.9,20.6,29.61,SSW,205,2.0,17.0,9,0.00,,---,0.00,VWS V14.00,2013-05-18 22:37:00,
2013-05-18 17:38:00,85.9,23.1,29.61,SW,215,14.0,17.0,10,0.00,,---,0.00,VWS V14.00,2013-05-18 22:38:00,
2013-05-18 17:39:00,85.7,20.4,29.61,SSW,208,14.0,17.0,9,0.00,,---,0.00,VWS V14.00,2013-05-18 22:39:00,
2013-05-18 17:42:00,85.9,23.1,29.61,SW,216,3.0,18.0,10,0.00,,---,0.00,VWS V14.00,2013-05-18 22:42:00,
2013-05-18 17:43:00,85.7,20.4,29.61,SW,215,3.0,18.0,9,0.00,,---,0.00,VWS V14.00,2013-05-18 22:43:00,
2013-05-18 17:44:00,85.7,22.9,29.61,SW,229,2.0,18.0,10,0.00,,---,0.00,VWS V14.00,2013-05-18 22:44:00,
2013-05-18 17:47:00,85.3,22.6,29.61,SW,216,1.0,18.0,10,0.00,,---,0.00,VWS V14.00,2013-05-18 22:47:00,
2013-05-18 17:48:00,85.7,22.9,29.61,SW,224,2.0,18.0,10,0.00,,---,0.00,VWS V14.00,2013-05-18 22:48:00,
2013-05-18 17:49:00,85.5,22.8,29.61,West,265,0.0,18.0,10,0.00,,---,0.00,VWS V14.00,2013-05-18 22:49:00,
2013-05-18 17:52:00,85.7,22.9,29.61,SSW,200,7.0,18.0,10,0.00,,---,0.00,VWS V14.00,2013-05-18 22:52:00,
2013-05-18 17:53:00,85.7,22.9,29.61,SSW,196,3.0,18.0,10,0.00,,---,0.00,VWS V14.00,2013-05-18 22:53:00,
2013-05-18 17:54:00,85.7,22.9,29.61,SW,216,7.0,18.0,10,0.00,,---,0.00,VWS V14.00,2013-05-18 22:54:00,
2013-05-18 17:58:00,85.7,22.9,29.61,SW,217,10.0,18.0,10,0.00,,---,0.00,VWS V14.00,2013-05-18 22:58:00,
2013-05-18 17:59:00,85.9,20.6,29.61,WSW,239,11.0,11.0,9,0.00,,---,0.00,VWS V14.00,2013-05-18 22:59:00,
2013-05-18 18:03:00,85.9,23.1,29.61,SSW,212,4.0,19.0,10,0.00,,---,0.00,VWS V14.00,2013-05-18 23:03:00,
2013-05-18 18:04:00,85.9,17.8,29.61,WSW,246,10.0,19.0,8,0.00,,---,0.00,VWS V14.00,2013-05-18 23:04:00,
2013-05-18 18:05:00,85.7,17.7,29.61,West,268,10.0,19.0,8,0.00,,---,0.00,VWS V14.00,2013-05-18 23:05:00,
2013-05-18 18:08:00,85.5,20.3,29.61,SW,232,0.0,19.0,9,0.00,,---,0.00,VWS V14.00,2013-05-18 23:08:00,
2013-05-18 18:09:00,85.3,20.1,29.61,WSW,239,2.0,19.0,9,0.00,,---,0.00,VWS V14.00,2013-05-18 23:09:00,
2013-05-18 18:10:00,85.3,20.1,29.61,West,278,0.0,19.0,9,0.00,,---,0.00,VWS V14.00,2013-05-18 23:10:00,
2013-05-18 18:13:00,85.3,22.6,29.61,West,274,9.0,19.0,10,0.00,,---,0.00,VWS V14.00,2013-05-18 23:13:00,
2013-05-18 18:14:00,85.1,22.5,29.56,WNW,288,11.0,19.0,10,0.00,,---,0.00,VWS V14.00,2013-05-18 23:14:00,
2013-05-18 18:15:00,84.9,22.3,29.56,West,260,0.0,19.0,10,0.00,,---,0.00,VWS V14.00,2013-05-18 23:15:00,
2013-05-18 18:18:00,85.5,20.3,29.56,SSW,208,11.0,19.0,9,0.00,,---,0.00,VWS V14.00,2013-05-18 23:18:00,
2013-05-18 18:19:00,85.1,20.0,29.56,WNW,295,16.0,25.0,9,0.00,,---,0.00,VWS V14.00,2013-05-18 23:19:00,
2013-05-18 18:20:00,85.1,17.2,29.56,SW,232,3.0,25.0,8,0.00,,---,0.00,VWS V14.00,2013-05-18 23:20:00,
2013-05-18 18:23:00,85.1,20.0,29.56,SSW,198,11.0,25.0,9,0.00,,---,0.00,VWS V14.00,2013-05-18 23:23:00,
2013-05-18 18:24:00,85.1,20.0,29.56,SW,226,13.0,25.0,9,0.00,,---,0.00,VWS V14.00,2013-05-18 23:24:00,
2013-05-18 18:25:00,85.1,22.5,29.56,SW,219,0.0,25.0,10,0.00,,---,0.00,VWS V14.00,2013-05-18 23:25:00,
2013-05-18 18:28:00,85.3,22.6,29.56,SSW,196,13.0,25.0,10,0.00,,---,0.00,VWS V14.00,2013-05-18 23:28:00,
2013-05-18 18:29:00,85.1,22.5,29.57,South,176,8.0,25.0,10,0.00,,---,0.00,VWS V14.00,2013-05-18 23:29:00,
2013-05-18 18:30:00,84.9,19.8,29.57,SSW,195,4.0,8.0,9,0.00,,---,0.00,VWS V14.00,2013-05-18 23:30:00,
2013-05-18 18:34:00,85.1,17.2,29.57,South,176,4.0,12.0,8,0.00,,---,0.00,VWS V14.00,2013-05-18 23:34:00,
2013-05-18 18:35:00,85.1,20.0,29.57,SW,229,6.0,13.0,9,0.00,,---,0.00,VWS V14.00,2013-05-18 23:35:00,
2013-05-18 18:36:00,84.9,19.8,29.57,SSW,212,0.0,13.0,9,0.00,,---,0.00,VWS V14.00,2013-05-18 23:36:00,
2013-05-18 18:39:00,85.1,20.0,29.57,WNW,288,9.0,14.0,9,0.00,,---,0.00,VWS V14.00,2013-05-18 23:39:00,
2013-05-18 18:40:00,85.3,17.4,29.57,SW,227,3.0,14.0,8,0.00,,---,0.00,VWS V14.00,2013-05-18 23:40:00,
2013-05-18 18:41:00,85.1,20.0,29.57,WSW,250,2.0,17.0,9,0.00,,---,0.00,VWS V14.00,2013-05-18 23:41:00,
2013-05-18 18:44:00,84.7,19.7,29.56,West,271,10.0,17.0,9,0.00,,---,0.00,VWS V14.00,2013-05-18 23:44:00,
2013-05-18 18:45:00,84.9,19.8,29.56,West,263,0.0,17.0,9,0.00,,---,0.00,VWS V14.00,2013-05-18 23:45:00,
2013-05-18 18:46:00,84.7,19.7,29.56,West,264,1.0,17.0,9,0.00,,---,0.00,VWS V14.00,2013-05-18 23:46:00,
2013-05-18 18:49:00,84.5,19.5,29.56,WSW,247,10.0,18.0,9,0.00,,---,0.00,VWS V14.00,2013-05-18 23:49:00,
2013-05-18 18:50:00,84.5,19.5,29.56,SW,215,1.0,18.0,9,0.00,,---,0.00,VWS V14.00,2013-05-18 23:50:00,
2013-05-18 18:51:00,84.7,19.7,29.56,West,260,6.0,18.0,9,0.00,,---,0.00,VWS V14.00,2013-05-18 23:51:00,
2013-05-18 18:54:00,84.7,17.0,29.56,SW,222,1.0,18.0,8,0.00,,---,0.00,VWS V14.00,2013-05-18 23:54:00,
2013-05-18 18:55:00,84.7,17.0,29.56,SSW,199,8.0,18.0,8,0.00,,---,0.00,VWS V14.00,2013-05-18 23:55:00,
2013-05-18 18:56:00,84.7,19.7,29.56,SSW,208,5.0,18.0,9,0.00,,---,0.00,VWS V14.00,2013-05-18 23:56:00,
2013-05-18 18:59:00,84.9,19.8,29.56,SSW,209,2.0,18.0,9,0.00,,---,0.00,VWS V14.00,2013-05-18 23:59:00,
2013-05-18 19:00:00,84.9,19.8,29.56,South,188,11.0,11.0,9,0.00,,---,0.00,VWS V14.00,2013-05-19 00:00:00,
2013-05-18 19:01:00,84.9,19.8,29.56,SW,219,0.0,11.0,9,0.00,,---,0.00,VWS V14.00,2013-05-19 00:01:00,
2013-05-18 19:04:00,84.7,19.7,29.56,SSW,200,9.0,20.0,9,0.00,,---,0.00,VWS V14.00,2013-05-19 00:04:00,
2013-05-18 19:05:00,84.5,19.5,29.56,West,260,2.0,20.0,9,0.00,,---,0.00,VWS V14.00,2013-05-19 00:05:00,
2013-05-18 19:06:00,84.7,17.0,29.56,West,264,10.0,20.0,8,0.00,,---,0.00,VWS V14.00,2013-05-19 00:06:00,
2013-05-18 19:07:00,84.7,17.0,29.56,SSW,203,1.0,20.0,8,0.00,,---,0.00,VWS V14.00,2013-05-19 00:07:00,
2013-05-18 19:09:00,84.7,19.7,29.56,West,268,0.0,20.0,9,0.00,,---,0.00,VWS V14.00,2013-05-19 00:09:00,
2013-05-18 19:10:00,84.5,19.5,29.56,SW,216,0.0,20.0,9,0.00,,---,0.00,VWS V14.00,2013-05-19 00:10:00,
2013-05-18 19:11:00,84.5,19.5,29.56,SW,234,1.0,20.0,9,0.00,,---,0.00,VWS V14.00,2013-05-19 00:11:00,
2013-05-18 19:12:00,84.5,19.5,29.56,West,278,0.0,20.0,9,0.00,,---,0.00,VWS V14.00,2013-05-19 00:12:00,
2013-05-18 19:14:00,84.3,19.4,29.50,SW,226,0.0,20.0,9,0.00,,---,0.00,VWS V14.00,2013-05-19 00:14:00,
2013-05-18 19:15:00,84.3,19.4,29.50,WSW,254,2.0,20.0,9,0.00,,---,0.00,VWS V14.00,2013-05-19 00:15:00,
2013-05-18 19:16:00,84.3,19.4,29.50,WSW,250,1.0,20.0,9,0.00,,---,0.00,VWS V14.00,2013-05-19 00:16:00,
2013-05-18 19:17:00,84.1,19.2,29.50,WSW,257,10.0,20.0,9,0.00,,---,0.00,VWS V14.00,2013-05-19 00:17:00,
2013-05-18 19:20:00,84.1,19.2,29.50,WSW,248,0.0,20.0,9,0.00,,---,0.00,VWS V14.00,2013-05-19 00:20:00,
2013-05-18 19:21:00,84.1,19.2,29.50,SW,226,2.0,20.0,9,0.00,,---,0.00,VWS V14.00,2013-05-19 00:21:00,
2013-05-18 19:22:00,84.1,19.2,29.50,SW,222,5.0,20.0,9,0.00,,---,0.00,VWS V14.00,2013-05-19 00:22:00,
2013-05-18 19:25:00,84.1,21.7,29.50,West,275,9.0,20.0,10,0.00,,---,0.00,VWS V14.00,2013-05-19 00:25:00,
2013-05-18 19:26:00,84.1,19.2,29.50,West,280,7.0,20.0,9,0.00,,---,0.00,VWS V14.00,2013-05-19 00:26:00,
2013-05-18 19:27:00,84.3,19.4,29.50,West,274,0.0,20.0,9,0.00,,---,0.00,VWS V14.00,2013-05-19 00:27:00,
2013-05-18 19:30:00,84.3,19.4,29.49,West,270,0.0,7.0,9,0.00,,---,0.00,VWS V14.00,2013-05-19 00:30:00,
2013-05-18 19:31:00,84.1,16.5,29.49,WSW,237,3.0,17.0,8,0.00,,---,0.00,VWS V14.00,2013-05-19 00:31:00,
2013-05-18 19:32:00,84.1,21.7,29.49,SSW,210,0.0,17.0,10,0.00,,---,0.00,VWS V14.00,2013-05-19 00:32:00,
2013-05-18 19:35:00,84.0,19.2,29.49,West,275,8.0,17.0,9,0.00,,---,0.00,VWS V14.00,2013-05-19 00:35:00,
2013-05-18 19:36:00,84.0,19.2,29.49,SW,234,2.0,17.0,9,0.00,,---,0.00,VWS V14.00,2013-05-19 00:36:00,
2013-05-18 19:37:00,83.8,19.0,29.49,WSW,257,5.0,17.0,9,0.00,,---,0.00,VWS V14.00,2013-05-19 00:37:00,
2013-05-18 19:40:00,83.8,19.0,29.49,SSW,199,0.0,17.0,9,0.00,,---,0.00,VWS V14.00,2013-05-19 00:40:00,
2013-05-18 19:41:00,83.8,19.0,29.49,SW,229,2.0,17.0,9,0.00,,---,0.00,VWS V14.00,2013-05-19 00:41:00,
2013-05-18 19:42:00,83.8,19.0,29.49,SSW,209,0.0,17.0,9,0.00,,---,0.00,VWS V14.00,2013-05-19 00:42:00,
2013-05-18 19:45:00,83.6,18.9,29.50,SW,223,0.0,17.0,9,0.00,,---,0.00,VWS V14.00,2013-05-19 00:45:00,
2013-05-18 19:46:00,83.4,21.2,29.50,SSW,202,2.0,17.0,10,0.00,,---,0.00,VWS V14.00,2013-05-19 00:46:00,
2013-05-18 19:47:00,83.4,18.7,29.50,SW,230,3.0,17.0,9,0.00,,---,0.00,VWS V14.00,2013-05-19 00:47:00,
2013-05-18 19:51:00,83.2,18.6,29.50,SW,227,3.0,17.0,9,0.00,,---,0.00,VWS V14.00,2013-05-19 00:51:00,
2013-05-18 19:52:00,83.2,18.6,29.50,WSW,237,7.0,17.0,9,0.00,,---,0.00,VWS V14.00,2013-05-19 00:52:00,
2013-05-18 19:53:00,83.2,18.6,29.50,SW,232,2.0,17.0,9,0.00,,---,0.00,VWS V14.00,2013-05-19 00:53:00,
2013-05-18 19:56:00,83.2,18.6,29.50,West,264,0.0,17.0,9,0.00,,---,0.00,VWS V14.00,2013-05-19 00:56:00,
2013-05-18 19:57:00,83.0,18.4,29.50,West,261,0.0,17.0,9,0.00,,---,0.00,VWS V14.00,2013-05-19 00:57:00,
2013-05-18 19:58:00,83.0,18.4,29.50,West,268,7.0,17.0,9,0.00,,---,0.00,VWS V14.00,2013-05-19 00:58:00,
2013-05-18 20:01:00,82.8,18.3,29.50,West,275,0.0,8.0,9,0.00,,---,0.00,VWS V14.00,2013-05-19 01:01:00,
2013-05-18 20:02:00,82.8,18.3,29.50,West,264,0.0,8.0,9,0.00,,---,0.00,VWS V14.00,2013-05-19 01:02:00,
2013-05-18 20:03:00,82.8,18.3,29.50,West,264,0.0,8.0,9,0.00,,---,0.00,VWS V14.00,2013-05-19 01:03:00,
2013-05-18 20:06:00,82.6,20.6,29.50,SW,230,2.0,8.0,10,0.00,,---,0.00,VWS V14.00,2013-05-19 01:06:00,
2013-05-18 20:07:00,82.6,20.6,29.50,WSW,243,0.0,8.0,10,0.00,,---,0.00,VWS V14.00,2013-05-19 01:07:00,
2013-05-18 20:08:00,82.4,20.4,29.50,SW,222,0.0,8.0,10,0.00,,---,0.00,VWS V14.00,2013-05-19 01:08:00,
2013-05-18 20:12:00,82.2,17.8,29.50,West,268,5.0,11.0,9,0.00,,---,0.00,VWS V14.00,2013-05-19 01:12:00,
2013-05-18 20:13:00,82.2,17.8,29.50,West,275,0.0,11.0,9,0.00,,---,0.00,VWS V14.00,2013-05-19 01:13:00,
2013-05-18 20:14:00,82.2,17.8,29.49,West,275,0.0,11.0,9,0.00,,---,0.00,VWS V14.00,2013-05-19 01:14:00,
2013-05-18 20:17:00,82.0,17.7,29.49,SW,233,1.0,11.0,9,0.00,,---,0.00,VWS V14.00,2013-05-19 01:17:00,
2013-05-18 20:18:00,82.0,14.9,29.49,WSW,239,0.0,11.0,8,0.00,,---,0.00,VWS V14.00,2013-05-19 01:18:00,
2013-05-18 20:19:00,82.0,14.9,29.49,WSW,239,0.0,11.0,8,0.00,,---,0.00,VWS V14.00,2013-05-19 01:19:00,
2013-05-18 20:22:00,81.6,17.4,29.49,WSW,237,0.0,11.0,9,0.00,,---,0.00,VWS V14.00,2013-05-19 01:22:00,
2013-05-18 20:23:00,81.6,17.4,29.49,WSW,237,0.0,11.0,9,0.00,,---,0.00,VWS V14.00,2013-05-19 01:23:00,
2013-05-18 20:24:00,81.6,17.4,29.49,WSW,239,0.0,11.0,9,0.00,,---,0.00,VWS V14.00,2013-05-19 01:24:00,
2013-05-18 20:27:00,81.2,19.5,29.49,WSW,237,0.0,11.0,10,0.00,,---,0.00,VWS V14.00,2013-05-19 01:27:00,
2013-05-18 20:28:00,81.1,19.4,29.49,WSW,237,0.0,11.0,10,0.00,,---,0.00,VWS V14.00,2013-05-19 01:28:00,
2013-05-18 20:29:00,81.1,19.4,29.50,WSW,237,0.0,11.0,10,0.00,,---,0.00,VWS V14.00,2013-05-19 01:29:00,
2013-05-18 20:32:00,80.7,19.1,29.50,WSW,237,0.0,0.0,10,0.00,,---,0.00,VWS V14.00,2013-05-19 01:32:00,
2013-05-18 20:33:00,80.5,19.0,29.50,WSW,237,0.0,0.0,10,0.00,,---,0.00,VWS V14.00,2013-05-19 01:33:00,
2013-05-18 20:34:00,80.5,19.0,29.50,WSW,237,0.0,0.0,10,0.00,,---,0.00,VWS V14.00,2013-05-19 01:34:00,
2013-05-18 20:37:00,79.6,18.3,29.50,WSW,237,0.0,0.0,10,0.00,,---,0.00,VWS V14.00,2013-05-19 01:37:00,
2013-05-18 20:38:00,79.6,18.3,29.50,WSW,237,0.0,0.0,10,0.00,,---,0.00,VWS V14.00,2013-05-19 01:38:00,
2013-05-18 20:39:00,79.4,18.1,29.50,WSW,237,0.0,0.0,10,0.00,,---,0.00,VWS V14.00,2013-05-19 01:39:00,
2013-05-18 20:42:00,78.6,19.8,29.50,WSW,237,0.0,0.0,11,0.00,,---,0.00,VWS V14.00,2013-05-19 01:42:00,
2013-05-18 20:43:00,78.6,19.8,29.50,WSW,237,0.0,0.0,11,0.00,,---,0.00,VWS V14.00,2013-05-19 01:43:00,
2013-05-18 20:44:00,78.5,19.7,29.51,WSW,237,0.0,0.0,11,0.00,,---,0.00,VWS V14.00,2013-05-19 01:44:00,
2013-05-18 20:47:00,77.9,19.2,29.51,WSW,237,0.0,0.0,11,0.00,,---,0.00,VWS V14.00,2013-05-19 01:47:00,
2013-05-18 20:48:00,77.7,19.0,29.51,WSW,237,0.0,0.0,11,0.00,,---,0.00,VWS V14.00,2013-05-19 01:48:00,
2013-05-18 20:49:00,77.7,19.0,29.51,WSW,237,0.0,0.0,11,0.00,,---,0.00,VWS V14.00,2013-05-19 01:49:00,
2013-05-18 20:53:00,76.8,20.4,29.51,WSW,237,0.0,0.0,12,0.00,,---,0.00,VWS V14.00,2013-05-19 01:53:00,
2013-05-18 20:54:00,76.8,20.4,29.51,WSW,237,0.0,0.0,12,0.00,,---,0.00,VWS V14.00,2013-05-19 01:54:00,
2013-05-18 20:58:00,76.0,19.8,29.51,WSW,237,0.0,0.0,12,0.00,,---,0.00,VWS V14.00,2013-05-19 01:58:00,
2013-05-18 20:59:00,75.8,19.6,29.52,WSW,237,0.0,0.0,12,0.00,,---,0.00,VWS V14.00,2013-05-19 01:59:00,
2013-05-18 21:03:00,74.9,20.8,29.52,WSW,237,0.0,0.0,13,0.00,,---,0.00,VWS V14.00,2013-05-19 02:03:00,
2013-05-18 21:04:00,74.7,20.6,29.52,WSW,237,0.0,0.0,13,0.00,,---,0.00,VWS V14.00,2013-05-19 02:04:00,
2013-05-18 21:08:00,73.9,20.0,29.52,WSW,237,0.0,0.0,13,0.00,,---,0.00,VWS V14.00,2013-05-19 02:08:00,
2013-05-18 21:09:00,73.7,19.8,29.52,WSW,237,0.0,0.0,13,0.00,,---,0.00,VWS V14.00,2013-05-19 02:09:00,
2013-05-18 21:10:00,73.3,19.5,29.52,WSW,237,0.0,0.0,13,0.00,,---,0.00,VWS V14.00,2013-05-19 02:10:00,
2013-05-18 21:13:00,72.8,19.1,29.53,WSW,237,0.0,0.0,13,0.00,,---,0.00,VWS V14.00,2013-05-19 02:13:00,
2013-05-18 21:14:00,72.7,19.1,29.53,WSW,237,0.0,0.0,13,0.00,,---,0.00,VWS V14.00,2013-05-19 02:14:00,
2013-05-18 21:15:00,72.5,18.9,29.53,WSW,237,0.0,0.0,13,0.00,,---,0.00,VWS V14.00,2013-05-19 02:15:00,
2013-05-18 21:19:00,72.1,18.6,29.53,WSW,237,0.0,0.0,13,0.00,,---,0.00,VWS V14.00,2013-05-19 02:19:00,
2013-05-18 21:20:00,72.1,18.6,29.53,WSW,237,0.0,0.0,13,0.00,,---,0.00,VWS V14.00,2013-05-19 02:20:00,
2013-05-18 21:24:00,71.3,21.3,29.53,WSW,237,0.0,0.0,15,0.00,,---,0.00,VWS V14.00,2013-05-19 02:24:00,
2013-05-18 21:25:00,71.3,21.3,29.53,WSW,237,0.0,0.0,15,0.00,,---,0.00,VWS V14.00,2013-05-19 02:25:00,
2013-05-18 21:30:00,70.9,21.0,29.54,WSW,237,0.0,0.0,15,0.00,,---,0.00,VWS V14.00,2013-05-19 02:30:00,
2013-05-18 21:31:00,70.8,20.9,29.54,WSW,237,0.0,0.0,15,0.00,,---,0.00,VWS V14.00,2013-05-19 02:31:00,
2013-05-18 21:35:00,69.9,21.7,29.54,WSW,237,0.0,0.0,16,0.00,,---,0.00,VWS V14.00,2013-05-19 02:35:00,
2013-05-18 21:36:00,69.8,21.6,29.54,WSW,237,0.0,0.0,16,0.00,,---,0.00,VWS V14.00,2013-05-19 02:36:00,
2013-05-18 21:40:00,69.3,19.7,29.54,WSW,237,0.0,0.0,15,0.00,,---,0.00,VWS V14.00,2013-05-19 02:40:00,
2013-05-18 21:41:00,69.1,19.5,29.54,WSW,237,0.0,0.0,15,0.00,,---,0.00,VWS V14.00,2013-05-19 02:41:00,
2013-05-18 21:46:00,68.6,20.6,29.56,WSW,237,0.0,0.0,16,0.00,,---,0.00,VWS V14.00,2013-05-19 02:46:00,
2013-05-18 21:51:00,68.1,20.2,29.56,WSW,237,0.0,0.0,16,0.00,,---,0.00,VWS V14.00,2013-05-19 02:51:00,
2013-05-18 21:56:00,68.6,19.1,29.56,WSW,237,0.0,0.0,15,0.00,,---,0.00,VWS V14.00,2013-05-19 02:56:00,
2013-05-18 22:01:00,67.6,21.3,29.57,WSW,237,0.0,0.0,17,0.00,,---,0.00,VWS V14.00,2013-05-19 03:01:00,
2013-05-18 22:02:00,67.4,21.1,29.57,WSW,237,0.0,0.0,17,0.00,,---,0.00,VWS V14.00,2013-05-19 03:02:00,
2013-05-18 22:06:00,66.3,21.6,29.57,WSW,237,0.0,0.0,18,0.00,,---,0.00,VWS V14.00,2013-05-19 03:06:00,
2013-05-18 22:07:00,66.1,20.0,29.57,WSW,237,0.0,0.0,17,0.00,,---,0.00,VWS V14.00,2013-05-19 03:07:00,
2013-05-18 22:11:00,65.6,21.0,29.57,WSW,237,0.0,0.0,18,0.00,,---,0.00,VWS V14.00,2013-05-19 03:11:00,
2013-05-18 22:12:00,65.6,21.0,29.57,WSW,237,0.0,0.0,18,0.00,,---,0.00,VWS V14.00,2013-05-19 03:12:00,
2013-05-18 22:16:00,65.0,21.8,29.57,WSW,237,0.0,0.0,19,0.00,,---,0.00,VWS V14.00,2013-05-19 03:16:00,
2013-05-18 22:17:00,65.0,21.8,29.57,WSW,237,0.0,0.0,19,0.00,,---,0.00,VWS V14.00,2013-05-19 03:17:00,
2013-05-18 22:21:00,64.3,22.4,29.57,WSW,237,0.0,0.0,20,0.00,,---,0.00,VWS V14.00,2013-05-19 03:21:00,
2013-05-18 22:22:00,64.3,22.4,29.57,WSW,237,0.0,0.0,20,0.00,,---,0.00,VWS V14.00,2013-05-19 03:22:00,
2013-05-18 22:27:00,63.7,21.9,29.57,WSW,237,0.0,0.0,20,0.00,,---,0.00,VWS V14.00,2013-05-19 03:27:00,
2013-05-18 22:28:00,63.5,21.7,29.57,WSW,237,0.0,0.0,20,0.00,,---,0.00,VWS V14.00,2013-05-19 03:28:00,
2013-05-18 22:32:00,63.4,20.5,29.58,WSW,237,0.0,0.0,19,0.00,,---,0.00,VWS V14.00,2013-05-19 03:32:00,
2013-05-18 22:33:00,63.2,21.5,29.58,WSW,237,0.0,0.0,20,0.00,,---,0.00,VWS V14.00,2013-05-19 03:33:00,
2013-05-18 22:37:00,62.9,22.4,29.58,WSW,237,0.0,0.0,21,0.00,,---,0.00,VWS V14.00,2013-05-19 03:37:00,
2013-05-18 22:39:00,62.7,22.2,29.58,WSW,237,0.0,0.0,21,0.00,,---,0.00,VWS V14.00,2013-05-19 03:39:00,
2013-05-18 22:42:00,62.4,20.8,29.58,WSW,237,0.0,0.0,20,0.00,,---,0.00,VWS V14.00,2013-05-19 03:42:00,
2013-05-18 22:43:00,62.3,21.9,29.60,WSW,237,0.0,0.0,21,0.00,,---,0.00,VWS V14.00,2013-05-19 03:43:00,
2013-05-18 22:44:00,62.1,21.7,29.60,WSW,237,0.0,0.0,21,0.00,,---,0.00,VWS V14.00,2013-05-19 03:44:00,
2013-05-18 22:47:00,62.0,20.5,29.60,WSW,237,0.0,0.0,20,0.00,,---,0.00,VWS V14.00,2013-05-19 03:47:00,
2013-05-18 22:48:00,62.0,20.5,29.60,WSW,237,0.0,0.0,20,0.00,,---,0.00,VWS V14.00,2013-05-19 03:48:00,
2013-05-18 22:49:00,61.8,21.5,29.60,WSW,237,0.0,0.0,21,0.00,,---,0.00,VWS V14.00,2013-05-19 03:49:00,
2013-05-18 22:52:00,61.3,22.2,29.60,WSW,237,0.0,0.0,22,0.00,,---,0.00,VWS V14.00,2013-05-19 03:52:00,
2013-05-18 22:53:00,61.3,22.2,29.60,WSW,237,0.0,0.0,22,0.00,,---,0.00,VWS V14.00,2013-05-19 03:53:00,
2013-05-18 22:54:00,61.2,22.1,29.60,WSW,237,0.0,0.0,22,0.00,,---,0.00,VWS V14.00,2013-05-19 03:54:00,
2013-05-18 22:57:00,60.9,23.9,29.60,WSW,237,0.0,0.0,24,0.00,,---,0.00,VWS V14.00,2013-05-19 03:57:00,
2013-05-18 22:58:00,60.9,23.9,29.60,WSW,237,0.0,0.0,24,0.00,,---,0.00,VWS V14.00,2013-05-19 03:58:00,
2013-05-18 22:59:00,60.9,20.7,29.61,WSW,237,0.0,0.0,21,0.00,,---,0.00,VWS V14.00,2013-05-19 03:59:00,
2013-05-18 23:01:00,60.7,22.7,29.61,WSW,237,0.0,0.0,23,0.00,,---,0.00,VWS V14.00,2013-05-19 04:01:00,
2013-05-18 23:06:00,60.1,21.1,29.61,WSW,237,0.0,0.0,22,0.00,,---,0.00,VWS V14.00,2013-05-19 04:06:00,
2013-05-18 23:11:00,60.1,21.1,29.61,WSW,237,0.0,0.0,22,0.00,,---,0.00,VWS V14.00,2013-05-19 04:11:00,
2013-05-18 23:16:00,59.9,19.9,29.61,WSW,237,0.0,0.0,21,0.00,,---,0.00,VWS V14.00,2013-05-19 04:16:00,
2013-05-18 23:21:00,59.6,21.8,29.61,WSW,237,0.0,0.0,23,0.00,,---,0.00,VWS V14.00,2013-05-19 04:21:00,
2013-05-18 23:22:00,59.6,20.7,29.61,WSW,237,0.0,0.0,22,0.00,,---,0.00,VWS V14.00,2013-05-19 04:22:00,
2013-05-18 23:26:00,59.5,20.6,29.61,WSW,237,0.0,0.0,22,0.00,,---,0.00,VWS V14.00,2013-05-19 04:26:00,
2013-05-18 23:27:00,59.5,20.6,29.61,WSW,237,0.0,0.0,22,0.00,,---,0.00,VWS V14.00,2013-05-19 04:27:00,
2013-05-18 23:31:00,59.3,22.5,29.61,WSW,237,0.0,0.0,24,0.00,,---,0.00,VWS V14.00,2013-05-19 04:31:00,
2013-05-18 23:32:00,59.2,22.5,29.61,WSW,237,0.0,0.0,24,0.00,,---,0.00,VWS V14.00,2013-05-19 04:32:00,
2013-05-18 23:36:00,58.9,20.1,29.61,WSW,237,0.0,0.0,22,0.00,,---,0.00,VWS V14.00,2013-05-19 04:36:00,
2013-05-18 23:37:00,58.9,21.2,29.61,WSW,237,0.0,0.0,23,0.00,,---,0.00,VWS V14.00,2013-05-19 04:37:00,
2013-05-18 23:38:00,58.9,21.2,29.61,WSW,237,0.0,0.0,23,0.00,,---,0.00,VWS V14.00,2013-05-19 04:38:00,
2013-05-18 23:41:00,58.6,21.9,29.61,WSW,237,0.0,0.0,24,0.00,,---,0.00,VWS V14.00,2013-05-19 04:41:00,
2013-05-18 23:42:00,58.6,21.9,29.61,WSW,237,0.0,0.0,24,0.00,,---,0.00,VWS V14.00,2013-05-19 04:42:00,
2013-05-18 23:43:00,58.4,21.8,29.61,WSW,237,0.0,0.0,24,0.00,,---,0.00,VWS V14.00,2013-05-19 04:43:00,
2013-05-18 23:46:00,58.3,20.7,29.62,WSW,237,0.0,0.0,23,0.00,,---,0.00,VWS V14.00,2013-05-19 04:46:00,
2013-05-18 23:47:00,58.1,20.5,29.62,WSW,237,0.0,0.0,23,0.00,,---,0.00,VWS V14.00,2013-05-19 04:47:00,
2013-05-18 23:48:00,58.1,20.5,29.62,WSW,237,0.0,0.0,23,0.00,,---,0.00,VWS V14.00,2013-05-19 04:48:00,
2013-05-18 23:52:00,58.3,19.6,29.62,WSW,237,0.0,0.0,22,0.00,,---,0.00,VWS V14.00,2013-05-19 04:52:00,
2013-05-18 23:53:00,58.3,19.6,29.62,WSW,237,0.0,0.0,22,0.00,,---,0.00,VWS V14.00,2013-05-19 04:53:00,
2013-05-18 23:57:00,58.9,17.9,29.62,WSW,237,0.0,0.0,20,0.00,,---,0.00,VWS V14.00,2013-05-19 04:57:00,
2013-05-18 23:58:00,58.9,17.9,29.62,WSW,237,0.0,0.0,20,0.00,,---,0.00,VWS V14.00,2013-05-19 04:58:00,